Observation data for Happy on 09/21/2020      Previous  Date  Next       Current Mesonet Observations  Soil Data  Daily Summary Page  Observations in Plain Language
KHA2 210500Z 14007KT 11/06 A3022 RMK A01 T01090056  RH  070%=      5-min Rain = 0
KHA2 210501Z 14007KT 11/06 A3022 RMK A01 T01090056  RH  070%=      5-min Rain = 0
KHA2 210502Z 14007KT 11/06 A3022 RMK A01 T01090056  RH  070%=      5-min Rain = 0
KHA2 210503Z 14007KT 11/06 A3022 RMK A01 T01090056  RH  070%=      5-min Rain = 0
KHA2 210504Z 14007KT 11/06 A3022 RMK A01 T01090055  RH  069%=      5-min Rain = 0
KHA2 210505Z 15007KT 11/06 A3022 RMK A01 T01090056  RH  069%=      5-min Rain = 0
KHA2 210506Z 15007KT 11/06 A3022 RMK A01 T01100056  RH  069%=      5-min Rain = 0
KHA2 210507Z 14006KT 11/06 A3022 RMK A01 T01100056  RH  069%=      5-min Rain = 0
KHA2 210508Z 14006KT 11/06 A3023 RMK A01 T01090056  RH  069%=      5-min Rain = 0
KHA2 210509Z 15007KT 11/06 A3023 RMK A01 T01100056  RH  069%=      5-min Rain = 0
KHA2 210510Z 15006KT 11/06 A3023 RMK A01 T01090055  RH  069%=      5-min Rain = 0
KHA2 210511Z 15006KT 11/05 A3023 RMK A01 T01090053  RH  068%=      5-min Rain = 0
KHA2 210512Z 14006KT 11/05 A3023 RMK A01 T01090054  RH  069%=      5-min Rain = 0
KHA2 210513Z 14006KT 11/05 A3023 RMK A01 T01080054  RH  069%=      5-min Rain = 0
KHA2 210514Z 15006KT 11/05 A3023 RMK A01 T01080054  RH  070%=      5-min Rain = 0
KHA2 210515Z 15006KT 11/05 A3023 RMK A01 T01080054  RH  070%=      5-min Rain = 0
KHA2 210516Z 15006KT 11/05 A3023 RMK A01 T01080054  RH  069%=      5-min Rain = 0
KHA2 210517Z 15006KT 11/05 A3023 RMK A01 T01070053  RH  069%=      5-min Rain = 0
KHA2 210518Z 14006KT 11/05 A3023 RMK A01 T01070053  RH  069%=      5-min Rain = 0
KHA2 210519Z 15006KT 11/05 A3023 RMK A01 T01070054  RH  069%=      5-min Rain = 0
KHA2 210520Z 15007KT 11/05 A3023 RMK A01 T01070054  RH  070%=      5-min Rain = 0
KHA2 210521Z 15006KT 11/05 A3023 RMK A01 T01070054  RH  070%=      5-min Rain = 0
KHA2 210522Z 14006KT 11/05 A3023 RMK A01 T01070054  RH  070%=      5-min Rain = 0
KHA2 210523Z 14006KT 11/05 A3023 RMK A01 T01080054  RH  070%=      5-min Rain = 0
KHA2 210524Z 15006KT 11/05 A3023 RMK A01 T01080054  RH  070%=      5-min Rain = 0
KHA2 210525Z 15006KT 11/05 A3023 RMK A01 T01080054  RH  070%=      5-min Rain = 0
KHA2 210526Z 15006KT 11/06 A3023 RMK A01 T01080055  RH  070%=      5-min Rain = 0
KHA2 210527Z 14006KT 11/06 A3023 RMK A01 T01080055  RH  070%=      5-min Rain = 0
KHA2 210528Z 14006KT 11/06 A3023 RMK A01 T01080055  RH  070%=      5-min Rain = 0
KHA2 210529Z 14006KT 11/05 A3023 RMK A01 T01080054  RH  070%=      5-min Rain = 0
KHA2 210530Z 14006KT 11/06 A3023 RMK A01 T01080055  RH  070%=      5-min Rain = 0
KHA2 210531Z 14006KT 11/05 A3023 RMK A01 T01080054  RH  070%=      5-min Rain = 0
KHA2 210532Z 15006KT 11/06 A3023 RMK A01 T01080055  RH  070%=      5-min Rain = 0
KHA2 210533Z 15006KT 11/06 A3023 RMK A01 T01080055  RH  070%=      5-min Rain = 0
KHA2 210534Z 14005KT 11/05 A3023 RMK A01 T01080054  RH  069%=      5-min Rain = 0
KHA2 210535Z 14005KT 11/05 A3023 RMK A01 T01080054  RH  069%=      5-min Rain = 0
KHA2 210536Z 14005KT 11/05 A3023 RMK A01 T01080054  RH  069%=      5-min Rain = 0
KHA2 210537Z 14006KT 11/05 A3023 RMK A01 T01080054  RH  070%=      5-min Rain = 0
KHA2 210538Z 14006KT 11/06 A3023 RMK A01 T01080055  RH  070%=      5-min Rain = 0
KHA2 210539Z 14006KT 11/06 A3023 RMK A01 T01080055  RH  070%=      5-min Rain = 0
KHA2 210540Z 14006KT 11/06 A3023 RMK A01 T01080055  RH  070%=      5-min Rain = 0
KHA2 210541Z 14006KT 11/06 A3023 RMK A01 T01080055  RH  070%=      5-min Rain = 0
KHA2 210542Z 14006KT 11/06 A3023 RMK A01 T01080055  RH  070%=      5-min Rain = 0
KHA2 210543Z 14006KT 11/06 A3023 RMK A01 T01080055  RH  070%=      5-min Rain = 0
KHA2 210544Z 14006KT 11/06 A3023 RMK A01 T01080055  RH  070%=      5-min Rain = 0
KHA2 210545Z 14006KT 11/06 A3023 RMK A01 T01070055  RH  070%=      5-min Rain = 0
KHA2 210546Z 15006KT 11/05 A3023 RMK A01 T01070054  RH  070%=      5-min Rain = 0
KHA2 210547Z 15006KT 11/05 A3023 RMK A01 T01060052  RH  069%=      5-min Rain = 0
KHA2 210548Z 15006KT 11/05 A3023 RMK A01 T01050051  RH  069%=      5-min Rain = 0
KHA2 210549Z 15006KT 10/05 A3023 RMK A01 T01040049  RH  069%=      5-min Rain = 0
KHA2 210550Z 15006KT 10/05 A3023 RMK A01 T01030050  RH  070%=      5-min Rain = 0
KHA2 210551Z 15006KT 10/05 A3023 RMK A01 T01030051  RH  070%=      5-min Rain = 0
KHA2 210552Z 15006KT 10/05 A3023 RMK A01 T01030052  RH  071%=      5-min Rain = 0
KHA2 210553Z 15006KT 10/05 A3023 RMK A01 T01030051  RH  070%=      5-min Rain = 0
KHA2 210554Z 15006KT 10/05 A3023 RMK A01 T01020050  RH  070%=      5-min Rain = 0
KHA2 210555Z 15006KT 10/05 A3023 RMK A01 T01020051  RH  071%=      5-min Rain = 0
KHA2 210556Z 15006KT 10/05 A3023 RMK A01 T01020052  RH  071%=      5-min Rain = 0
KHA2 210557Z 15006KT 10/05 A3023 RMK A01 T01020052  RH  071%=      5-min Rain = 0
KHA2 210558Z 15006KT 10/05 A3023 RMK A01 T01020053  RH  072%=      5-min Rain = 0
KHA2 210559Z 15006KT 10/05 A3023 RMK A01 T01020053  RH  071%=      5-min Rain = 0
KHA2 210600Z 15006KT 10/05 A3023 RMK A01 T01020052  RH  071%=      5-min Rain = 0
KHA2 210601Z 15006KT 10/05 A3023 RMK A01 T01020052  RH  071%=      5-min Rain = 0
KHA2 210602Z 15006KT 10/05 A3023 RMK A01 T01020052  RH  071%=      5-min Rain = 0
KHA2 210603Z 15006KT 10/05 A3023 RMK A01 T01020052  RH  071%=      5-min Rain = 0
KHA2 210604Z 15006KT 10/05 A3023 RMK A01 T01030053  RH  071%=      5-min Rain = 0
KHA2 210605Z 15006KT 10/05 A3023 RMK A01 T01020054  RH  072%=      5-min Rain = 0
KHA2 210606Z 15005KT 10/05 A3023 RMK A01 T01030054  RH  072%=      5-min Rain = 0
KHA2 210607Z 15005KT 10/05 A3023 RMK A01 T01030053  RH  071%=      5-min Rain = 0
KHA2 210608Z 15005KT 10/05 A3023 RMK A01 T01030052  RH  071%=      5-min Rain = 0
KHA2 210609Z 15005KT 10/05 A3023 RMK A01 T01030053  RH  071%=      5-min Rain = 0
KHA2 210610Z 15005KT 10/05 A3023 RMK A01 T01030054  RH  072%=      5-min Rain = 0
KHA2 210611Z 15005KT 10/05 A3023 RMK A01 T01030054  RH  072%=      5-min Rain = 0
KHA2 210612Z 14005KT 10/05 A3023 RMK A01 T01030054  RH  072%=      5-min Rain = 0
KHA2 210613Z 14005KT 10/06 A3023 RMK A01 T01030055  RH  072%=      5-min Rain = 0
KHA2 210614Z 14005KT 10/05 A3023 RMK A01 T01030054  RH  072%=      5-min Rain = 0
KHA2 210615Z 15005KT 10/05 A3023 RMK A01 T01030054  RH  072%=      5-min Rain = 0
KHA2 210616Z 15005KT 10/06 A3023 RMK A01 T01030055  RH  072%=      5-min Rain = 0
KHA2 210617Z 15004KT 10/05 A3023 RMK A01 T01030054  RH  072%=      5-min Rain = 0
KHA2 210618Z 15004KT 10/05 A3023 RMK A01 T01030054  RH  072%=      5-min Rain = 0
KHA2 210619Z 15004KT 10/05 A3023 RMK A01 T01020053  RH  071%=      5-min Rain = 0
KHA2 210620Z 15004KT 10/05 A3023 RMK A01 T01020053  RH  072%=      5-min Rain = 0
KHA2 210621Z 15004KT 10/05 A3023 RMK A01 T01010053  RH  072%=      5-min Rain = 0
KHA2 210622Z 15004KT 10/05 A3023 RMK A01 T01020053  RH  072%=      5-min Rain = 0
KHA2 210623Z 15004KT 10/05 A3023 RMK A01 T01010053  RH  072%=      5-min Rain = 0
KHA2 210624Z 14004KT 10/05 A3023 RMK A01 T01020054  RH  072%=      5-min Rain = 0
KHA2 210625Z 14004KT 10/05 A3023 RMK A01 T01020054  RH  072%=      5-min Rain = 0
KHA2 210626Z 14004KT 10/05 A3023 RMK A01 T01020054  RH  072%=      5-min Rain = 0
KHA2 210627Z 14004KT 10/05 A3023 RMK A01 T01020053  RH  072%=      5-min Rain = 0
KHA2 210628Z 14004KT 10/05 A3023 RMK A01 T01020054  RH  072%=      5-min Rain = 0
KHA2 210629Z 14004KT 10/05 A3023 RMK A01 T01020054  RH  072%=      5-min Rain = 0
KHA2 210630Z 14004KT 10/05 A3023 RMK A01 T01020054  RH  072%=      5-min Rain = 0
KHA2 210631Z 14004KT 10/06 A3023 RMK A01 T01010055  RH  073%=      5-min Rain = 0
KHA2 210632Z 14004KT 10/06 A3023 RMK A01 T01010055  RH  073%=      5-min Rain = 0
KHA2 210633Z 14004KT 10/06 A3023 RMK A01 T01020056  RH  073%=      5-min Rain = 0
KHA2 210634Z 14004KT 10/06 A3023 RMK A01 T01010055  RH  073%=      5-min Rain = 0
KHA2 210635Z 14004KT 10/06 A3023 RMK A01 T01010055  RH  073%=      5-min Rain = 0
KHA2 210636Z 14004KT 10/06 A3023 RMK A01 T01010055  RH  073%=      5-min Rain = 0
KHA2 210637Z 14004KT 10/06 A3023 RMK A01 T01010055  RH  073%=      5-min Rain = 0
KHA2 210638Z 14004KT 10/05 A3023 RMK A01 T01010054  RH  073%=      5-min Rain = 0
KHA2 210639Z 14004KT 10/05 A3023 RMK A01 T01020054  RH  072%=      5-min Rain = 0
KHA2 210640Z 14004KT 10/05 A3023 RMK A01 T01010054  RH  072%=      5-min Rain = 0
KHA2 210641Z 14004KT 10/05 A3023 RMK A01 T01010053  RH  072%=      5-min Rain = 0
KHA2 210642Z 14004KT 10/05 A3023 RMK A01 T01010052  RH  072%=      5-min Rain = 0
KHA2 210643Z 14004KT 10/05 A3023 RMK A01 T01010053  RH  072%=      5-min Rain = 0
KHA2 210644Z 14005KT 10/05 A3023 RMK A01 T01020053  RH  072%=      5-min Rain = 0
KHA2 210645Z 14005KT 10/05 A3023 RMK A01 T01030054  RH  072%=      5-min Rain = 0
KHA2 210646Z 14005KT 10/06 A3023 RMK A01 T01040056  RH  072%=      5-min Rain = 0
KHA2 210647Z 14004KT 10/06 A3023 RMK A01 T01040057  RH  072%=      5-min Rain = 0
KHA2 210648Z 14005KT 11/06 A3023 RMK A01 T01050058  RH  073%=      5-min Rain = 0
KHA2 210649Z 14004KT 11/06 A3023 RMK A01 T01050058  RH  072%=      5-min Rain = 0
KHA2 210650Z 14004KT 11/06 A3023 RMK A01 T01050057  RH  072%=      5-min Rain = 0
KHA2 210651Z 14004KT 11/06 A3023 RMK A01 T01050057  RH  072%=      5-min Rain = 0
KHA2 210652Z 14004KT 11/06 A3023 RMK A01 T01050057  RH  072%=      5-min Rain = 0
KHA2 210653Z 14003KT 10/06 A3023 RMK A01 T01040056  RH  072%=      5-min Rain = 0
KHA2 210654Z 14003KT 10/06 A3023 RMK A01 T01040056  RH  072%=      5-min Rain = 0
KHA2 210655Z 14004KT 10/06 A3023 RMK A01 T01040057  RH  073%=      5-min Rain = 0
KHA2 210656Z 13004KT 10/06 A3023 RMK A01 T01040057  RH  073%=      5-min Rain = 0
KHA2 210657Z 13004KT 10/06 A3023 RMK A01 T01040058  RH  073%=      5-min Rain = 0
KHA2 210658Z 13004KT 10/06 A3023 RMK A01 T01040058  RH  073%=      5-min Rain = 0
KHA2 210659Z 13004KT 11/06 A3023 RMK A01 T01050059  RH  073%=      5-min Rain = 0
KHA2 210700Z 13004KT 11/06 A3023 RMK A01 T01060060  RH  073%=      5-min Rain = 0
KHA2 210701Z 13004KT 11/06 A3023 RMK A01 T01070059  RH  073%=      5-min Rain = 0
KHA2 210702Z 13004KT 11/06 A3023 RMK A01 T01070059  RH  072%=      5-min Rain = 0
KHA2 210703Z 13004KT 11/06 A3023 RMK A01 T01070059  RH  072%=      5-min Rain = 0
KHA2 210704Z 13004KT 11/06 A3023 RMK A01 T01060057  RH  072%=      5-min Rain = 0
KHA2 210705Z 13004KT 11/06 A3023 RMK A01 T01050057  RH  072%=      5-min Rain = 0
KHA2 210706Z 13004KT 10/06 A3023 RMK A01 T01040057  RH  072%=      5-min Rain = 0
KHA2 210707Z 13005KT 10/06 A3023 RMK A01 T01040058  RH  073%=      5-min Rain = 0
KHA2 210708Z 13005KT 10/06 A3023 RMK A01 T01030058  RH  073%=      5-min Rain = 0
KHA2 210709Z 13005KT 10/06 A3023 RMK A01 T01030058  RH  073%=      5-min Rain = 0
KHA2 210710Z 14004KT 10/06 A3023 RMK A01 T01030058  RH  074%=      5-min Rain = 0
KHA2 210711Z 14004KT 10/06 A3023 RMK A01 T01040058  RH  073%=      5-min Rain = 0
KHA2 210712Z 14004KT 10/06 A3023 RMK A01 T01040057  RH  073%=      5-min Rain = 0
KHA2 210713Z 14004KT 10/06 A3023 RMK A01 T01040058  RH  073%=      5-min Rain = 0
KHA2 210714Z 14004KT 10/06 A3023 RMK A01 T01040058  RH  073%=      5-min Rain = 0
KHA2 210715Z 14004KT 10/06 A3023 RMK A01 T01040058  RH  073%=      5-min Rain = 0
KHA2 210716Z 14004KT 10/06 A3023 RMK A01 T01040057  RH  073%=      5-min Rain = 0
KHA2 210717Z 14004KT 10/06 A3023 RMK A01 T01030057  RH  073%=      5-min Rain = 0
KHA2 210718Z 14004KT 10/06 A3023 RMK A01 T01030057  RH  073%=      5-min Rain = 0
KHA2 210719Z 14004KT 10/06 A3023 RMK A01 T01030057  RH  073%=      5-min Rain = 0
KHA2 210720Z 14004KT 10/06 A3023 RMK A01 T01030057  RH  073%=      5-min Rain = 0
KHA2 210721Z 15004KT 10/06 A3023 RMK A01 T01030057  RH  073%=      5-min Rain = 0
KHA2 210722Z 15004KT 10/06 A3023 RMK A01 T01030057  RH  073%=      5-min Rain = 0
KHA2 210723Z 15004KT 10/06 A3023 RMK A01 T01030058  RH  074%=      5-min Rain = 0
KHA2 210724Z 15004KT 10/06 A3023 RMK A01 T01030057  RH  073%=      5-min Rain = 0
KHA2 210725Z 15004KT 10/06 A3023 RMK A01 T01030058  RH  073%=      5-min Rain = 0
KHA2 210726Z 15004KT 10/06 A3023 RMK A01 T01040058  RH  073%=      5-min Rain = 0
KHA2 210727Z 15005KT 10/06 A3023 RMK A01 T01040058  RH  073%=      5-min Rain = 0
KHA2 210728Z 15004KT 10/06 A3023 RMK A01 T01040058  RH  073%=      5-min Rain = 0
KHA2 210729Z 15005KT 10/06 A3023 RMK A01 T01040058  RH  073%=      5-min Rain = 0
KHA2 210730Z 15005KT 10/06 A3023 RMK A01 T01040058  RH  073%=      5-min Rain = 0
KHA2 210731Z 15005KT 10/06 A3023 RMK A01 T01040058  RH  073%=      5-min Rain = 0
KHA2 210732Z 15005KT 10/06 A3023 RMK A01 T01040058  RH  073%=      5-min Rain = 0
KHA2 210733Z 15005KT 10/06 A3023 RMK A01 T01040058  RH  073%=      5-min Rain = 0
KHA2 210734Z 15005KT 10/06 A3023 RMK A01 T01030057  RH  073%=      5-min Rain = 0
KHA2 210735Z 15005KT 10/06 A3023 RMK A01 T01020056  RH  073%=      5-min Rain = 0
KHA2 210736Z 15005KT 10/06 A3023 RMK A01 T01020056  RH  073%=      5-min Rain = 0
KHA2 210737Z 15005KT 10/06 A3023 RMK A01 T01010056  RH  073%=      5-min Rain = 0
KHA2 210738Z 15005KT 10/06 A3023 RMK A01 T01010056  RH  074%=      5-min Rain = 0
KHA2 210739Z 15005KT 10/06 A3023 RMK A01 T01000055  RH  074%=      5-min Rain = 0
KHA2 210740Z 15005KT 10/06 A3023 RMK A01 T01000055  RH  074%=      5-min Rain = 0
KHA2 210741Z 14005KT 10/06 A3023 RMK A01 T00990055  RH  074%=      5-min Rain = 0
KHA2 210742Z 14006KT 10/06 A3023 RMK A01 T00990055  RH  074%=      5-min Rain = 0
KHA2 210743Z 14006KT 10/06 A3023 RMK A01 T00990055  RH  074%=      5-min Rain = 0
KHA2 210744Z 14006KT 10/06 A3023 RMK A01 T00990055  RH  074%=      5-min Rain = 0
KHA2 210745Z 14006KT 10/05 A3023 RMK A01 T00980054  RH  074%=      5-min Rain = 0
KHA2 210746Z 15005KT 10/05 A3023 RMK A01 T00970053  RH  074%=      5-min Rain = 0
KHA2 210747Z 15005KT 10/05 A3023 RMK A01 T00960052  RH  074%=      5-min Rain = 0
KHA2 210748Z 15005KT 10/05 A3023 RMK A01 T00950052  RH  075%=      5-min Rain = 0
KHA2 210749Z 15005KT 09/05 A3023 RMK A01 T00940052  RH  075%=      5-min Rain = 0
KHA2 210750Z 15005KT 09/05 A3023 RMK A01 T00940052  RH  075%=      5-min Rain = 0
KHA2 210751Z 15004KT 09/05 A3023 RMK A01 T00930052  RH  075%=      5-min Rain = 0
KHA2 210752Z 15004KT 09/05 A3023 RMK A01 T00930051  RH  075%=      5-min Rain = 0
KHA2 210753Z 16004KT 09/05 A3023 RMK A01 T00920050  RH  075%=      5-min Rain = 0
KHA2 210754Z 17003KT 09/05 A3023 RMK A01 T00910049  RH  075%=      5-min Rain = 0
KHA2 210755Z 17004KT 09/05 A3023 RMK A01 T00910048  RH  075%=      5-min Rain = 0
KHA2 210756Z 17004KT 09/05 A3023 RMK A01 T00910050  RH  076%=      5-min Rain = 0
KHA2 210757Z 16004KT 09/05 A3023 RMK A01 T00910049  RH  075%=      5-min Rain = 0
KHA2 210758Z 17004KT 09/05 A3023 RMK A01 T00910050  RH  075%=      5-min Rain = 0
KHA2 210759Z 16005KT 09/05 A3023 RMK A01 T00910049  RH  075%=      5-min Rain = 0
KHA2 210800Z 16005KT 09/05 A3023 RMK A01 T00910052  RH  076%=      5-min Rain = 0
KHA2 210801Z 16005KT 09/05 A3023 RMK A01 T00920052  RH  076%=      5-min Rain = 0
KHA2 210802Z 16005KT 09/05 A3023 RMK A01 T00920053  RH  077%=      5-min Rain = 0
KHA2 210803Z 16005KT 09/05 A3023 RMK A01 T00930054  RH  077%=      5-min Rain = 0
KHA2 210804Z 16005KT 09/05 A3023 RMK A01 T00930054  RH  077%=      5-min Rain = 0
KHA2 210805Z 16005KT 09/06 A3023 RMK A01 T00930055  RH  077%=      5-min Rain = 0
KHA2 210806Z 16005KT 09/06 A3023 RMK A01 T00930055  RH  077%=      5-min Rain = 0
KHA2 210807Z 16005KT 09/05 A3023 RMK A01 T00930054  RH  077%=      5-min Rain = 0
KHA2 210808Z 16005KT 09/05 A3023 RMK A01 T00930054  RH  077%=      5-min Rain = 0
KHA2 210809Z 16005KT 09/05 A3023 RMK A01 T00920054  RH  077%=      5-min Rain = 0
KHA2 210810Z 16005KT 09/05 A3023 RMK A01 T00920054  RH  077%=      5-min Rain = 0
KHA2 210811Z 16005KT 09/05 A3024 RMK A01 T00910054  RH  077%=      5-min Rain = 0
KHA2 210812Z 16005KT 09/05 A3024 RMK A01 T00910054  RH  077%=      5-min Rain = 0
KHA2 210813Z 15005KT 09/05 A3024 RMK A01 T00910054  RH  077%=      5-min Rain = 0
KHA2 210814Z 15005KT 09/05 A3024 RMK A01 T00910053  RH  077%=      5-min Rain = 0
KHA2 210815Z 16005KT 09/05 A3024 RMK A01 T00900053  RH  078%=      5-min Rain = 0
KHA2 210816Z 16005KT 09/05 A3024 RMK A01 T00900054  RH  078%=      5-min Rain = 0
KHA2 210817Z 16005KT 09/05 A3024 RMK A01 T00900054  RH  078%=      5-min Rain = 0
KHA2 210818Z 16005KT 09/05 A3024 RMK A01 T00900053  RH  078%=      5-min Rain = 0
KHA2 210819Z 16005KT 09/05 A3024 RMK A01 T00900053  RH  078%=      5-min Rain = 0
KHA2 210820Z 15005KT 09/05 A3023 RMK A01 T00900053  RH  078%=      5-min Rain = 0
KHA2 210821Z 15005KT 09/05 A3023 RMK A01 T00900053  RH  077%=      5-min Rain = 0
KHA2 210822Z 16005KT 09/05 A3023 RMK A01 T00900052  RH  077%=      5-min Rain = 0
KHA2 210823Z 16005KT 09/05 A3023 RMK A01 T00890052  RH  078%=      5-min Rain = 0
KHA2 210824Z 16005KT 09/05 A3023 RMK A01 T00890052  RH  078%=      5-min Rain = 0
KHA2 210825Z 16005KT 09/05 A3023 RMK A01 T00890051  RH  077%=      5-min Rain = 0
KHA2 210826Z 16005KT 09/05 A3023 RMK A01 T00880050  RH  077%=      5-min Rain = 0
KHA2 210827Z 16005KT 09/05 A3023 RMK A01 T00880050  RH  077%=      5-min Rain = 0
KHA2 210828Z 16005KT 09/05 A3023 RMK A01 T00870050  RH  077%=      5-min Rain = 0
KHA2 210829Z 16005KT 09/05 A3023 RMK A01 T00870049  RH  077%=      5-min Rain = 0
KHA2 210830Z 16005KT 09/05 A3023 RMK A01 T00870050  RH  077%=      5-min Rain = 0
KHA2 210831Z 17004KT 09/05 A3023 RMK A01 T00870051  RH  078%=      5-min Rain = 0
KHA2 210832Z 17004KT 09/05 A3023 RMK A01 T00870051  RH  078%=      5-min Rain = 0
KHA2 210833Z 17004KT 09/05 A3023 RMK A01 T00880052  RH  078%=      5-min Rain = 0
KHA2 210834Z 17005KT 09/05 A3023 RMK A01 T00890052  RH  078%=      5-min Rain = 0
KHA2 210835Z 17005KT 09/05 A3023 RMK A01 T00890050  RH  077%=      5-min Rain = 0
KHA2 210836Z 17005KT 09/05 A3023 RMK A01 T00890050  RH  077%=      5-min Rain = 0
KHA2 210837Z 17005KT 09/05 A3023 RMK A01 T00900053  RH  078%=      5-min Rain = 0
KHA2 210838Z 17005KT 09/05 A3023 RMK A01 T00910053  RH  077%=      5-min Rain = 0
KHA2 210839Z 17005KT 09/05 A3023 RMK A01 T00910053  RH  077%=      5-min Rain = 0
KHA2 210840Z 17006KT 09/05 A3023 RMK A01 T00910053  RH  077%=      5-min Rain = 0
KHA2 210841Z 17006KT 09/05 A3023 RMK A01 T00910053  RH  077%=      5-min Rain = 0
KHA2 210842Z 17006KT 09/05 A3023 RMK A01 T00900053  RH  077%=      5-min Rain = 0
KHA2 210843Z 17006KT 09/05 A3023 RMK A01 T00900053  RH  077%=      5-min Rain = 0
KHA2 210844Z 17006KT 09/05 A3023 RMK A01 T00900052  RH  078%=      5-min Rain = 0
KHA2 210845Z 17006KT 09/05 A3023 RMK A01 T00890052  RH  078%=      5-min Rain = 0
KHA2 210846Z 17006KT 09/05 A3023 RMK A01 T00880051  RH  078%=      5-min Rain = 0
KHA2 210847Z 17006KT 09/05 A3023 RMK A01 T00880052  RH  078%=      5-min Rain = 0
KHA2 210848Z 17006KT 09/05 A3023 RMK A01 T00880052  RH  078%=      5-min Rain = 0
KHA2 210849Z 17006KT 09/05 A3023 RMK A01 T00880052  RH  078%=      5-min Rain = 0
KHA2 210850Z 17006KT 09/05 A3023 RMK A01 T00890052  RH  078%=      5-min Rain = 0
KHA2 210851Z 17006KT 09/05 A3023 RMK A01 T00880051  RH  077%=      5-min Rain = 0
KHA2 210852Z 17006KT 09/05 A3023 RMK A01 T00890051  RH  077%=      5-min Rain = 0
KHA2 210853Z 17006KT 09/05 A3023 RMK A01 T00890051  RH  077%=      5-min Rain = 0
KHA2 210854Z 17005KT 09/05 A3023 RMK A01 T00890051  RH  077%=      5-min Rain = 0
KHA2 210855Z 17005KT 09/05 A3023 RMK A01 T00880051  RH  077%=      5-min Rain = 0
KHA2 210856Z 17006KT 09/05 A3023 RMK A01 T00890052  RH  078%=      5-min Rain = 0
KHA2 210857Z 17006KT 09/05 A3023 RMK A01 T00900053  RH  077%=      5-min Rain = 0
KHA2 210858Z 17006KT 09/05 A3023 RMK A01 T00910053  RH  077%=      5-min Rain = 0
KHA2 210859Z 17006KT 09/05 A3023 RMK A01 T00910053  RH  077%=      5-min Rain = 0
KHA2 210900Z 17006KT 09/05 A3023 RMK A01 T00910053  RH  077%=      5-min Rain = 0
KHA2 210901Z 17006KT 09/05 A3023 RMK A01 T00910052  RH  076%=      5-min Rain = 0
KHA2 210902Z 17006KT 09/05 A3023 RMK A01 T00900049  RH  075%=      5-min Rain = 0
KHA2 210903Z 17006KT 09/05 A3023 RMK A01 T00890046  RH  075%=      5-min Rain = 0
KHA2 210904Z 17006KT 09/05 A3023 RMK A01 T00870045  RH  075%=      5-min Rain = 0
KHA2 210905Z 17006KT 09/05 A3023 RMK A01 T00860046  RH  076%=      5-min Rain = 0
KHA2 210906Z 18006KT 09/05 A3023 RMK A01 T00850046  RH  077%=      5-min Rain = 0
KHA2 210907Z 18006KT 08/05 A3023 RMK A01 T00840046  RH  077%=      5-min Rain = 0
KHA2 210908Z 18007KT 08/05 A3023 RMK A01 T00830045  RH  077%=      5-min Rain = 0
KHA2 210909Z 17007KT 08/05 A3023 RMK A01 T00830046  RH  078%=      5-min Rain = 0
KHA2 210910Z 17007KT 08/05 A3023 RMK A01 T00830047  RH  078%=      5-min Rain = 0
KHA2 210911Z 17007KT 08/05 A3023 RMK A01 T00830047  RH  078%=      5-min Rain = 0
KHA2 210912Z 17007KT 08/05 A3023 RMK A01 T00830047  RH  078%=      5-min Rain = 0
KHA2 210913Z 17007KT 08/05 A3023 RMK A01 T00830047  RH  078%=      5-min Rain = 0
KHA2 210914Z 17007KT 08/05 A3023 RMK A01 T00830046  RH  078%=      5-min Rain = 0
KHA2 210915Z 18007KT 08/05 A3023 RMK A01 T00830046  RH  078%=      5-min Rain = 0
KHA2 210916Z 18007KT 08/05 A3023 RMK A01 T00820046  RH  078%=      5-min Rain = 0
KHA2 210917Z 18007KT 08/05 A3023 RMK A01 T00820047  RH  079%=      5-min Rain = 0
KHA2 210918Z 18007KT 08/05 A3023 RMK A01 T00810048  RH  080%=      5-min Rain = 0
KHA2 210919Z 18007KT 08/05 A3023 RMK A01 T00810049  RH  080%=      5-min Rain = 0
KHA2 210920Z 18007KT 08/05 A3023 RMK A01 T00810049  RH  080%=      5-min Rain = 0
KHA2 210921Z 18007KT 08/05 A3023 RMK A01 T00810050  RH  081%=      5-min Rain = 0
KHA2 210922Z 18007KT 08/05 A3023 RMK A01 T00810051  RH  081%=      5-min Rain = 0
KHA2 210923Z 18007KT 08/05 A3023 RMK A01 T00810052  RH  082%=      5-min Rain = 0
KHA2 210924Z 18008KT 08/05 A3023 RMK A01 T00820052  RH  082%=      5-min Rain = 0
KHA2 210925Z 18008KT 08/05 A3023 RMK A01 T00820053  RH  082%=      5-min Rain = 0
KHA2 210926Z 18008KT 08/05 A3023 RMK A01 T00830053  RH  081%=      5-min Rain = 0
KHA2 210927Z 18008KT 08/05 A3023 RMK A01 T00830052  RH  081%=      5-min Rain = 0
KHA2 210928Z 18008KT 08/05 A3023 RMK A01 T00830053  RH  081%=      5-min Rain = 0
KHA2 210929Z 18008KT 08/05 A3023 RMK A01 T00830052  RH  081%=      5-min Rain = 0
KHA2 210930Z 18008KT 08/05 A3023 RMK A01 T00830052  RH  081%=      5-min Rain = 0
KHA2 210931Z 18008KT 08/05 A3023 RMK A01 T00830052  RH  081%=      5-min Rain = 0
KHA2 210932Z 18008KT 08/05 A3023 RMK A01 T00830052  RH  081%=      5-min Rain = 0
KHA2 210933Z 19008KT 08/05 A3023 RMK A01 T00840054  RH  081%=      5-min Rain = 0
KHA2 210934Z 19008KT 09/06 A3023 RMK A01 T00850055  RH  081%=      5-min Rain = 0
KHA2 210935Z 19008KT 09/06 A3023 RMK A01 T00870057  RH  082%=      5-min Rain = 0
KHA2 210936Z 19008KT 09/06 A3023 RMK A01 T00880059  RH  082%=      5-min Rain = 0
KHA2 210937Z 19008KT 09/06 A3023 RMK A01 T00890059  RH  081%=      5-min Rain = 0
KHA2 210938Z 19008KT 09/06 A3023 RMK A01 T00900059  RH  081%=      5-min Rain = 0
KHA2 210939Z 19008KT 09/06 A3023 RMK A01 T00910060  RH  081%=      5-min Rain = 0
KHA2 210940Z 19008KT 09/06 A3023 RMK A01 T00910060  RH  081%=      5-min Rain = 0
KHA2 210941Z 19008KT 09/06 A3023 RMK A01 T00920061  RH  081%=      5-min Rain = 0
KHA2 210942Z 19008KT 09/06 A3023 RMK A01 T00930061  RH  081%=      5-min Rain = 0
KHA2 210943Z 19007KT 09/06 A3023 RMK A01 T00930061  RH  080%=      5-min Rain = 0
KHA2 210944Z 19008KT 09/06 A3023 RMK A01 T00930060  RH  080%=      5-min Rain = 0
KHA2 210945Z 19008KT 09/06 A3023 RMK A01 T00930061  RH  080%=      5-min Rain = 0
KHA2 210946Z 20007KT 09/06 A3023 RMK A01 T00930061  RH  080%=      5-min Rain = 0
KHA2 210947Z 20006KT 09/06 A3023 RMK A01 T00940062  RH  080%=      5-min Rain = 0
KHA2 210948Z 20006KT 09/06 A3023 RMK A01 T00940063  RH  081%=      5-min Rain = 0
KHA2 210949Z 20006KT 09/06 A3023 RMK A01 T00940061  RH  080%=      5-min Rain = 0
KHA2 210950Z 20006KT 09/06 A3023 RMK A01 T00940061  RH  080%=      5-min Rain = 0
KHA2 210951Z 21006KT 09/06 A3023 RMK A01 T00930059  RH  079%=      5-min Rain = 0
KHA2 210952Z 21006KT 09/06 A3023 RMK A01 T00910055  RH  078%=      5-min Rain = 0
KHA2 210953Z 21006KT 09/05 A3023 RMK A01 T00890053  RH  078%=      5-min Rain = 0
KHA2 210954Z 21006KT 09/05 A3023 RMK A01 T00870053  RH  079%=      5-min Rain = 0
KHA2 210955Z 21006KT 09/05 A3023 RMK A01 T00870053  RH  080%=      5-min Rain = 0
KHA2 210956Z 21006KT 09/05 A3023 RMK A01 T00860054  RH  080%=      5-min Rain = 0
KHA2 210957Z 21006KT 09/05 A3023 RMK A01 T00860053  RH  080%=      5-min Rain = 0
KHA2 210958Z 21006KT 09/05 A3023 RMK A01 T00850053  RH  080%=      5-min Rain = 0
KHA2 210959Z 21006KT 09/05 A3023 RMK A01 T00860053  RH  080%=      5-min Rain = 0
KHA2 211000Z 21006KT 09/05 A3023 RMK A01 T00850053  RH  080%=      5-min Rain = 0
KHA2 211001Z 21006KT 09/05 A3023 RMK A01 T00850052  RH  079%=      5-min Rain = 0
KHA2 211002Z 21006KT 09/05 A3023 RMK A01 T00860052  RH  079%=      5-min Rain = 0
KHA2 211003Z 21007KT 09/05 A3023 RMK A01 T00860053  RH  080%=      5-min Rain = 0
KHA2 211004Z 20007KT 09/05 A3023 RMK A01 T00860053  RH  079%=      5-min Rain = 0
KHA2 211005Z 20007KT 09/05 A3023 RMK A01 T00860053  RH  079%=      5-min Rain = 0
KHA2 211006Z 20007KT 09/05 A3023 RMK A01 T00860053  RH  080%=      5-min Rain = 0
KHA2 211007Z 20007KT 09/05 A3023 RMK A01 T00860054  RH  080%=      5-min Rain = 0
KHA2 211008Z 20007KT 09/05 A3023 RMK A01 T00870054  RH  080%=      5-min Rain = 0
KHA2 211009Z 20007KT 09/05 A3023 RMK A01 T00860054  RH  080%=      5-min Rain = 0
KHA2 211010Z 21007KT 09/05 A3023 RMK A01 T00860053  RH  080%=      5-min Rain = 0
KHA2 211011Z 20007KT 09/05 A3023 RMK A01 T00850052  RH  080%=      5-min Rain = 0
KHA2 211012Z 20007KT 08/05 A3023 RMK A01 T00840052  RH  080%=      5-min Rain = 0
KHA2 211013Z 20007KT 08/05 A3023 RMK A01 T00840053  RH  081%=      5-min Rain = 0
KHA2 211014Z 20006KT 08/05 A3023 RMK A01 T00840052  RH  081%=      5-min Rain = 0
KHA2 211015Z 20007KT 08/05 A3023 RMK A01 T00830053  RH  081%=      5-min Rain = 0
KHA2 211016Z 20007KT 08/05 A3023 RMK A01 T00830053  RH  081%=      5-min Rain = 0
KHA2 211017Z 20007KT 08/05 A3023 RMK A01 T00830054  RH  082%=      5-min Rain = 0
KHA2 211018Z 20007KT 08/05 A3023 RMK A01 T00830053  RH  082%=      5-min Rain = 0
KHA2 211019Z 20007KT 08/05 A3023 RMK A01 T00830053  RH  082%=      5-min Rain = 0
KHA2 211020Z 20007KT 08/05 A3023 RMK A01 T00830054  RH  082%=      5-min Rain = 0
KHA2 211021Z 20007KT 08/06 A3023 RMK A01 T00830055  RH  082%=      5-min Rain = 0
KHA2 211022Z 20007KT 08/06 A3023 RMK A01 T00840055  RH  082%=      5-min Rain = 0
KHA2 211023Z 20007KT 08/06 A3023 RMK A01 T00840056  RH  082%=      5-min Rain = 0
KHA2 211024Z 19007KT 08/06 A3023 RMK A01 T00840055  RH  082%=      5-min Rain = 0
KHA2 211025Z 20007KT 08/06 A3023 RMK A01 T00840055  RH  082%=      5-min Rain = 0
KHA2 211026Z 19007KT 08/06 A3023 RMK A01 T00840055  RH  082%=      5-min Rain = 0
KHA2 211027Z 19007KT 08/06 A3023 RMK A01 T00840055  RH  082%=      5-min Rain = 0
KHA2 211028Z 19007KT 08/05 A3023 RMK A01 T00840054  RH  082%=      5-min Rain = 0
KHA2 211029Z 19007KT 08/05 A3023 RMK A01 T00830054  RH  082%=      5-min Rain = 0
KHA2 211030Z 19007KT 08/05 A3023 RMK A01 T00830054  RH  082%=      5-min Rain = 0
KHA2 211031Z 19007KT 08/05 A3023 RMK A01 T00820054  RH  082%=      5-min Rain = 0
KHA2 211032Z 19007KT 08/05 A3023 RMK A01 T00820054  RH  082%=      5-min Rain = 0
KHA2 211033Z 20006KT 08/05 A3023 RMK A01 T00820054  RH  082%=      5-min Rain = 0
KHA2 211034Z 20006KT 08/05 A3023 RMK A01 T00820053  RH  082%=      5-min Rain = 0
KHA2 211035Z 20006KT 08/05 A3023 RMK A01 T00820054  RH  083%=      5-min Rain = 0
KHA2 211036Z 19006KT 08/05 A3023 RMK A01 T00820054  RH  083%=      5-min Rain = 0
KHA2 211037Z 19006KT 08/05 A3023 RMK A01 T00810053  RH  082%=      5-min Rain = 0
KHA2 211038Z 19006KT 08/05 A3023 RMK A01 T00810053  RH  082%=      5-min Rain = 0
KHA2 211039Z 19005KT 08/05 A3023 RMK A01 T00800052  RH  082%=      5-min Rain = 0
KHA2 211040Z 20005KT 08/05 A3023 RMK A01 T00790052  RH  083%=      5-min Rain = 0
KHA2 211041Z 20005KT 08/05 A3023 RMK A01 T00800053  RH  083%=      5-min Rain = 0
KHA2 211042Z 21006KT 08/05 A3023 RMK A01 T00790053  RH  083%=      5-min Rain = 0
KHA2 211043Z 21005KT 08/05 A3023 RMK A01 T00790053  RH  083%=      5-min Rain = 0
KHA2 211044Z 21006KT 08/05 A3023 RMK A01 T00790051  RH  083%=      5-min Rain = 0
KHA2 211045Z 21005KT 08/05 A3023 RMK A01 T00770049  RH  082%=      5-min Rain = 0
KHA2 211046Z 21005KT 08/05 A3023 RMK A01 T00760047  RH  082%=      5-min Rain = 0
KHA2 211047Z 22005KT 08/05 A3023 RMK A01 T00750046  RH  082%=      5-min Rain = 0
KHA2 211048Z 22006KT 07/05 A3023 RMK A01 T00740045  RH  082%=      5-min Rain = 0
KHA2 211049Z 23006KT 07/05 A3023 RMK A01 T00740045  RH  082%=      5-min Rain = 0
KHA2 211050Z 23006KT 08/05 A3023 RMK A01 T00750046  RH  082%=      5-min Rain = 0
KHA2 211051Z 23007KT 08/05 A3023 RMK A01 T00750048  RH  083%=      5-min Rain = 0
KHA2 211052Z 22006KT 08/05 A3023 RMK A01 T00760049  RH  083%=      5-min Rain = 0
KHA2 211053Z 22006KT 08/05 A3023 RMK A01 T00770049  RH  083%=      5-min Rain = 0
KHA2 211054Z 22006KT 08/05 A3023 RMK A01 T00790051  RH  083%=      5-min Rain = 0
KHA2 211055Z 23006KT 08/05 A3023 RMK A01 T00790050  RH  082%=      5-min Rain = 0
KHA2 211056Z 23006KT 08/05 A3023 RMK A01 T00790049  RH  082%=      5-min Rain = 0
KHA2 211057Z 23006KT 08/05 A3023 RMK A01 T00790049  RH  081%=      5-min Rain = 0
KHA2 211058Z 23006KT 08/05 A3023 RMK A01 T00790049  RH  081%=      5-min Rain = 0
KHA2 211059Z 23005KT 08/05 A3023 RMK A01 T00790050  RH  082%=      5-min Rain = 0
KHA2 211100Z 23005KT 08/05 A3023 RMK A01 T00790050  RH  082%=      5-min Rain = 0
KHA2 211101Z 23005KT 08/05 A3023 RMK A01 T00790050  RH  082%=      5-min Rain = 0
KHA2 211102Z 24006KT 08/05 A3023 RMK A01 T00790049  RH  082%=      5-min Rain = 0
KHA2 211103Z 24006KT 08/05 A3023 RMK A01 T00790049  RH  082%=      5-min Rain = 0
KHA2 211104Z 24006KT 08/05 A3023 RMK A01 T00790050  RH  082%=      5-min Rain = 0
KHA2 211105Z 24005KT 08/05 A3023 RMK A01 T00800051  RH  082%=      5-min Rain = 0
KHA2 211106Z 24005KT 08/05 A3023 RMK A01 T00810051  RH  081%=      5-min Rain = 0
KHA2 211107Z 24005KT 08/05 A3023 RMK A01 T00810051  RH  081%=      5-min Rain = 0
KHA2 211108Z 24005KT 08/05 A3023 RMK A01 T00820051  RH  081%=      5-min Rain = 0
KHA2 211109Z 23005KT 08/05 A3023 RMK A01 T00820051  RH  081%=      5-min Rain = 0
KHA2 211110Z 23005KT 08/05 A3023 RMK A01 T00820051  RH  081%=      5-min Rain = 0
KHA2 211111Z 23005KT 08/05 A3023 RMK A01 T00820051  RH  081%=      5-min Rain = 0
KHA2 211112Z 23005KT 08/05 A3023 RMK A01 T00820051  RH  081%=      5-min Rain = 0
KHA2 211113Z 23005KT 08/05 A3023 RMK A01 T00820051  RH  081%=      5-min Rain = 0
KHA2 211114Z 23005KT 08/05 A3023 RMK A01 T00820051  RH  081%=      5-min Rain = 0
KHA2 211115Z 23005KT 08/05 A3023 RMK A01 T00820052  RH  081%=      5-min Rain = 0
KHA2 211116Z 23005KT 08/05 A3023 RMK A01 T00820052  RH  082%=      5-min Rain = 0
KHA2 211117Z 23005KT 08/05 A3023 RMK A01 T00820052  RH  082%=      5-min Rain = 0
KHA2 211118Z 23004KT 08/05 A3023 RMK A01 T00820052  RH  081%=      5-min Rain = 0
KHA2 211119Z 23004KT 08/05 A3024 RMK A01 T00820052  RH  082%=      5-min Rain = 0
KHA2 211120Z 22004KT 08/05 A3024 RMK A01 T00810051  RH  082%=      5-min Rain = 0
KHA2 211121Z 22004KT 08/05 A3024 RMK A01 T00810052  RH  082%=      5-min Rain = 0
KHA2 211122Z 22004KT 08/05 A3024 RMK A01 T00810053  RH  083%=      5-min Rain = 0
KHA2 211123Z 22004KT 08/05 A3024 RMK A01 T00810053  RH  082%=      5-min Rain = 0
KHA2 211124Z 23004KT 08/05 A3024 RMK A01 T00810053  RH  083%=      5-min Rain = 0
KHA2 211125Z 23004KT 08/05 A3024 RMK A01 T00810053  RH  082%=      5-min Rain = 0
KHA2 211126Z 23004KT 08/05 A3024 RMK A01 T00820054  RH  083%=      5-min Rain = 0
KHA2 211127Z 23004KT 08/05 A3024 RMK A01 T00820054  RH  082%=      5-min Rain = 0
KHA2 211128Z 22004KT 08/05 A3024 RMK A01 T00830054  RH  082%=      5-min Rain = 0
KHA2 211129Z 22005KT 08/05 A3024 RMK A01 T00830054  RH  082%=      5-min Rain = 0
KHA2 211130Z 22005KT 08/05 A3024 RMK A01 T00830054  RH  082%=      5-min Rain = 0
KHA2 211131Z 23005KT 08/05 A3024 RMK A01 T00830054  RH  082%=      5-min Rain = 0
KHA2 211132Z 23005KT 08/05 A3024 RMK A01 T00830052  RH  081%=      5-min Rain = 0
KHA2 211133Z 23005KT 08/05 A3024 RMK A01 T00810049  RH  080%=      5-min Rain = 0
KHA2 211134Z 23005KT 08/05 A3024 RMK A01 T00790048  RH  081%=      5-min Rain = 0
KHA2 211135Z 23005KT 08/05 A3024 RMK A01 T00780048  RH  081%=      5-min Rain = 0
KHA2 211136Z 23005KT 08/05 A3024 RMK A01 T00780049  RH  082%=      5-min Rain = 0
KHA2 211137Z 23005KT 08/05 A3024 RMK A01 T00770049  RH  083%=      5-min Rain = 0
KHA2 211138Z 24005KT 08/05 A3024 RMK A01 T00780050  RH  083%=      5-min Rain = 0
KHA2 211139Z 24005KT 08/05 A3024 RMK A01 T00780050  RH  083%=      5-min Rain = 0
KHA2 211140Z 24005KT 08/05 A3024 RMK A01 T00780050  RH  083%=      5-min Rain = 0
KHA2 211141Z 24005KT 08/05 A3024 RMK A01 T00780051  RH  083%=      5-min Rain = 0
KHA2 211142Z 24005KT 08/05 A3024 RMK A01 T00790052  RH  083%=      5-min Rain = 0
KHA2 211143Z 24006KT 08/05 A3024 RMK A01 T00800052  RH  083%=      5-min Rain = 0
KHA2 211144Z 24006KT 08/05 A3024 RMK A01 T00810052  RH  082%=      5-min Rain = 0
KHA2 211145Z 24006KT 08/05 A3024 RMK A01 T00810052  RH  082%=      5-min Rain = 0
KHA2 211146Z 24006KT 08/05 A3024 RMK A01 T00810053  RH  082%=      5-min Rain = 0
KHA2 211147Z 24006KT 08/05 A3024 RMK A01 T00810053  RH  082%=      5-min Rain = 0
KHA2 211148Z 23006KT 08/05 A3024 RMK A01 T00810052  RH  082%=      5-min Rain = 0
KHA2 211149Z 23006KT 08/05 A3024 RMK A01 T00810053  RH  082%=      5-min Rain = 0
KHA2 211150Z 23006KT 08/05 A3024 RMK A01 T00820053  RH  082%=      5-min Rain = 0
KHA2 211151Z 24006KT 08/06 A3024 RMK A01 T00830055  RH  083%=      5-min Rain = 0
KHA2 211152Z 24006KT 08/06 A3024 RMK A01 T00830055  RH  082%=      5-min Rain = 0
KHA2 211153Z 23006KT 08/06 A3024 RMK A01 T00830055  RH  082%=      5-min Rain = 0
KHA2 211154Z 23006KT 08/06 A3024 RMK A01 T00830055  RH  083%=      5-min Rain = 0
KHA2 211155Z 23006KT 08/06 A3024 RMK A01 T00840055  RH  082%=      5-min Rain = 0
KHA2 211156Z 23006KT 08/06 A3024 RMK A01 T00840055  RH  082%=      5-min Rain = 0
KHA2 211157Z 23006KT 08/06 A3024 RMK A01 T00840055  RH  082%=      5-min Rain = 0
KHA2 211158Z 24006KT 08/06 A3024 RMK A01 T00840055  RH  082%=      5-min Rain = 0
KHA2 211159Z 24006KT 08/06 A3024 RMK A01 T00840055  RH  082%=      5-min Rain = 0
KHA2 211200Z 24006KT 09/06 A3024 RMK A01 T00850056  RH  082%=      5-min Rain = 0
KHA2 211201Z 25006KT 09/06 A3024 RMK A01 T00850056  RH  082%=      5-min Rain = 0
KHA2 211202Z 24006KT 09/06 A3024 RMK A01 T00850056  RH  082%=      5-min Rain = 0
KHA2 211203Z 24006KT 09/06 A3024 RMK A01 T00860056  RH  082%=      5-min Rain = 0
KHA2 211204Z 24006KT 09/06 A3024 RMK A01 T00860057  RH  082%=      5-min Rain = 0
KHA2 211205Z 24006KT 09/06 A3024 RMK A01 T00860056  RH  082%=      5-min Rain = 0
KHA2 211206Z 24006KT 09/06 A3024 RMK A01 T00860057  RH  082%=      5-min Rain = 0
KHA2 211207Z 24006KT 09/06 A3024 RMK A01 T00850057  RH  082%=      5-min Rain = 0
KHA2 211208Z 24006KT 09/06 A3024 RMK A01 T00850056  RH  082%=      5-min Rain = 0
KHA2 211209Z 24006KT 08/06 A3024 RMK A01 T00840056  RH  083%=      5-min Rain = 0
KHA2 211210Z 24006KT 08/06 A3024 RMK A01 T00840056  RH  083%=      5-min Rain = 0
KHA2 211211Z 24006KT 08/06 A3024 RMK A01 T00840057  RH  083%=      5-min Rain = 0
KHA2 211212Z 25006KT 08/06 A3024 RMK A01 T00840057  RH  083%=      5-min Rain = 0
KHA2 211213Z 24006KT 08/06 A3024 RMK A01 T00840056  RH  083%=      5-min Rain = 0
KHA2 211214Z 24006KT 09/06 A3024 RMK A01 T00850057  RH  083%=      5-min Rain = 0
KHA2 211215Z 24006KT 09/06 A3024 RMK A01 T00850056  RH  082%=      5-min Rain = 0
KHA2 211216Z 24006KT 09/06 A3024 RMK A01 T00850056  RH  082%=      5-min Rain = 0
KHA2 211217Z 24006KT 09/06 A3025 RMK A01 T00850057  RH  082%=      5-min Rain = 0
KHA2 211218Z 24007KT 09/06 A3025 RMK A01 T00860057  RH  082%=      5-min Rain = 0
KHA2 211219Z 24007KT 09/06 A3025 RMK A01 T00860058  RH  083%=      5-min Rain = 0
KHA2 211220Z 24007KT 09/06 A3025 RMK A01 T00860058  RH  083%=      5-min Rain = 0
KHA2 211221Z 23006KT 09/06 A3025 RMK A01 T00860058  RH  082%=      5-min Rain = 0
KHA2 211222Z 23006KT 09/06 A3025 RMK A01 T00860058  RH  083%=      5-min Rain = 0
KHA2 211223Z 23006KT 09/06 A3025 RMK A01 T00850057  RH  083%=      5-min Rain = 0
KHA2 211224Z 23006KT 08/06 A3025 RMK A01 T00840057  RH  083%=      5-min Rain = 0
KHA2 211225Z 23006KT 08/06 A3025 RMK A01 T00840057  RH  083%=      5-min Rain = 0
KHA2 211226Z 22006KT 08/06 A3025 RMK A01 T00830056  RH  083%=      5-min Rain = 0
KHA2 211227Z 22007KT 08/06 A3025 RMK A01 T00820056  RH  083%=      5-min Rain = 0
KHA2 211228Z 23007KT 08/06 A3025 RMK A01 T00810055  RH  084%=      5-min Rain = 0
KHA2 211229Z 23007KT 08/05 A3025 RMK A01 T00800054  RH  084%=      5-min Rain = 0
KHA2 211230Z 23007KT 08/06 A3025 RMK A01 T00800055  RH  084%=      5-min Rain = 0
KHA2 211231Z 23007KT 08/06 A3025 RMK A01 T00800055  RH  084%=      5-min Rain = 0
KHA2 211232Z 23006KT 08/06 A3025 RMK A01 T00800055  RH  084%=      5-min Rain = 0
KHA2 211233Z 23006KT 08/06 A3025 RMK A01 T00790055  RH  084%=      5-min Rain = 0
KHA2 211234Z 23007KT 08/06 A3025 RMK A01 T00790055  RH  085%=      5-min Rain = 0
KHA2 211235Z 23007KT 08/05 A3025 RMK A01 T00790054  RH  084%=      5-min Rain = 0
KHA2 211236Z 23006KT 08/05 A3025 RMK A01 T00790054  RH  084%=      5-min Rain = 0
KHA2 211237Z 23006KT 08/06 A3025 RMK A01 T00800056  RH  085%=      5-min Rain = 0
KHA2 211238Z 23006KT 08/06 A3025 RMK A01 T00800056  RH  085%=      5-min Rain = 0
KHA2 211239Z 22006KT 08/06 A3025 RMK A01 T00800056  RH  085%=      5-min Rain = 0
KHA2 211240Z 22006KT 08/06 A3025 RMK A01 T00800056  RH  084%=      5-min Rain = 0
KHA2 211241Z 23006KT 08/06 A3025 RMK A01 T00800055  RH  084%=      5-min Rain = 0
KHA2 211242Z 23007KT 08/06 A3025 RMK A01 T00810055  RH  084%=      5-min Rain = 0
KHA2 211243Z 23007KT 08/06 A3025 RMK A01 T00800055  RH  084%=      5-min Rain = 0
KHA2 211244Z 23007KT 08/06 A3025 RMK A01 T00800055  RH  084%=      5-min Rain = 0
KHA2 211245Z 23007KT 08/06 A3025 RMK A01 T00810056  RH  084%=      5-min Rain = 0
KHA2 211246Z 23007KT 08/06 A3025 RMK A01 T00810056  RH  084%=      5-min Rain = 0
KHA2 211247Z 23006KT 08/06 A3025 RMK A01 T00820056  RH  084%=      5-min Rain = 0
KHA2 211248Z 23007KT 08/06 A3025 RMK A01 T00820056  RH  084%=      5-min Rain = 0
KHA2 211249Z 23007KT 08/06 A3025 RMK A01 T00820056  RH  084%=      5-min Rain = 0
KHA2 211250Z 23007KT 08/06 A3025 RMK A01 T00820056  RH  084%=      5-min Rain = 0
KHA2 211251Z 23007KT 08/06 A3025 RMK A01 T00820056  RH  084%=      5-min Rain = 0
KHA2 211252Z 23007KT 08/06 A3025 RMK A01 T00830057  RH  084%=      5-min Rain = 0
KHA2 211253Z 23007KT 08/06 A3025 RMK A01 T00830057  RH  084%=      5-min Rain = 0
KHA2 211254Z 23007KT 08/06 A3025 RMK A01 T00830056  RH  083%=      5-min Rain = 0
KHA2 211255Z 23007KT 08/06 A3025 RMK A01 T00830056  RH  083%=      5-min Rain = 0
KHA2 211256Z 23007KT 08/06 A3025 RMK A01 T00830055  RH  083%=      5-min Rain = 0
KHA2 211257Z 23007KT 08/06 A3025 RMK A01 T00820055  RH  083%=      5-min Rain = 0
KHA2 211258Z 23007KT 08/06 A3025 RMK A01 T00820055  RH  083%=      5-min Rain = 0
KHA2 211259Z 23007KT 08/06 A3025 RMK A01 T00820056  RH  083%=      5-min Rain = 0
KHA2 211300Z 22007KT 08/06 A3025 RMK A01 T00820056  RH  083%=      5-min Rain = 0
KHA2 211301Z 22007KT 08/06 A3025 RMK A01 T00830056  RH  083%=      5-min Rain = 0
KHA2 211302Z 22007KT 08/06 A3025 RMK A01 T00830056  RH  083%=      5-min Rain = 0
KHA2 211303Z 23007KT 08/06 A3025 RMK A01 T00830055  RH  083%=      5-min Rain = 0
KHA2 211304Z 23007KT 08/06 A3025 RMK A01 T00830055  RH  083%=      5-min Rain = 0
KHA2 211305Z 23007KT 08/06 A3025 RMK A01 T00830055  RH  083%=      5-min Rain = 0
KHA2 211306Z 22007KT 08/06 A3025 RMK A01 T00830055  RH  082%=      5-min Rain = 0
KHA2 211307Z 22006KT 08/05 A3025 RMK A01 T00830054  RH  082%=      5-min Rain = 0
KHA2 211308Z 22007KT 08/06 A3025 RMK A01 T00840055  RH  082%=      5-min Rain = 0
KHA2 211309Z 22007KT 08/06 A3025 RMK A01 T00840055  RH  082%=      5-min Rain = 0
KHA2 211310Z 22007KT 09/06 A3025 RMK A01 T00850055  RH  082%=      5-min Rain = 0
KHA2 211311Z 22007KT 08/06 A3025 RMK A01 T00840055  RH  082%=      5-min Rain = 0
KHA2 211312Z 22007KT 09/06 A3025 RMK A01 T00850055  RH  082%=      5-min Rain = 0
KHA2 211313Z 22007KT 09/06 A3025 RMK A01 T00850056  RH  082%=      5-min Rain = 0
KHA2 211314Z 21007KT 09/06 A3025 RMK A01 T00870057  RH  082%=      5-min Rain = 0
KHA2 211315Z 21007KT 09/06 A3026 RMK A01 T00870058  RH  082%=      5-min Rain = 0
KHA2 211316Z 21006KT 09/06 A3026 RMK A01 T00880059  RH  082%=      5-min Rain = 0
KHA2 211317Z 22006KT 09/06 A3026 RMK A01 T00890059  RH  082%=      5-min Rain = 0
KHA2 211318Z 22007KT 09/06 A3026 RMK A01 T00890060  RH  082%=      5-min Rain = 0
KHA2 211319Z 21006KT 09/06 A3026 RMK A01 T00900061  RH  082%=      5-min Rain = 0
KHA2 211320Z 21007KT 09/06 A3026 RMK A01 T00920062  RH  082%=      5-min Rain = 0
KHA2 211321Z 21006KT 09/06 A3026 RMK A01 T00930062  RH  081%=      5-min Rain = 0
KHA2 211322Z 21006KT 09/06 A3026 RMK A01 T00940063  RH  081%=      5-min Rain = 0
KHA2 211323Z 21007KT 10/07 A3026 RMK A01 T00950065  RH  081%=      5-min Rain = 0
KHA2 211324Z 21006KT 10/07 A3026 RMK A01 T00960065  RH  081%=      5-min Rain = 0
KHA2 211325Z 21007KT 10/07 A3026 RMK A01 T00970065  RH  080%=      5-min Rain = 0
KHA2 211326Z 21007KT 10/07 A3026 RMK A01 T00980065  RH  080%=      5-min Rain = 0
KHA2 211327Z 20006KT 10/07 A3026 RMK A01 T00990065  RH  079%=      5-min Rain = 0
KHA2 211328Z 21006KT 10/07 A3026 RMK A01 T00990065  RH  079%=      5-min Rain = 0
KHA2 211329Z 21006KT 10/07 A3026 RMK A01 T01000066  RH  079%=      5-min Rain = 0
KHA2 211330Z 21006KT 10/07 A3026 RMK A01 T01010067  RH  079%=      5-min Rain = 0
KHA2 211331Z 21007KT 10/07 A3026 RMK A01 T01030068  RH  079%=      5-min Rain = 0
KHA2 211332Z 21006KT 10/07 A3026 RMK A01 T01040068  RH  078%=      5-min Rain = 0
KHA2 211333Z 21007KT 11/07 A3026 RMK A01 T01050068  RH  078%=      5-min Rain = 0
KHA2 211334Z 21007KT 11/07 A3026 RMK A01 T01050069  RH  078%=      5-min Rain = 0
KHA2 211335Z 21007KT 11/07 A3026 RMK A01 T01070069  RH  078%=      5-min Rain = 0
KHA2 211336Z 21006KT 11/07 A3026 RMK A01 T01080070  RH  077%=      5-min Rain = 0
KHA2 211337Z 21006KT 11/07 A3026 RMK A01 T01090070  RH  077%=      5-min Rain = 0
KHA2 211338Z 21006KT 11/07 A3026 RMK A01 T01090070  RH  077%=      5-min Rain = 0
KHA2 211339Z 22006KT 11/07 A3026 RMK A01 T01110071  RH  076%=      5-min Rain = 0
KHA2 211340Z 21006KT 11/07 A3026 RMK A01 T01110071  RH  076%=      5-min Rain = 0
KHA2 211341Z 21006KT 11/07 A3026 RMK A01 T01120071  RH  076%=      5-min Rain = 0
KHA2 211342Z 22006KT 11/07 A3026 RMK A01 T01130071  RH  075%=      5-min Rain = 0
KHA2 211343Z 21006KT 11/07 A3026 RMK A01 T01140071  RH  075%=      5-min Rain = 0
KHA2 211344Z 21007KT 11/07 A3026 RMK A01 T01140071  RH  075%=      5-min Rain = 0
KHA2 211345Z 21007KT 11/07 A3026 RMK A01 T01140070  RH  074%=      5-min Rain = 0
KHA2 211346Z 22006KT 12/07 A3026 RMK A01 T01150071  RH  074%=      5-min Rain = 0
KHA2 211347Z 22006KT 12/07 A3026 RMK A01 T01160071  RH  074%=      5-min Rain = 0
KHA2 211348Z 22007KT 12/07 A3026 RMK A01 T01170072  RH  074%=      5-min Rain = 0
KHA2 211349Z 21005KT 12/07 A3026 RMK A01 T01170072  RH  074%=      5-min Rain = 0
KHA2 211350Z 21006KT 12/07 A3026 RMK A01 T01180073  RH  074%=      5-min Rain = 0
KHA2 211351Z 21006KT 12/07 A3026 RMK A01 T01190072  RH  073%=      5-min Rain = 0
KHA2 211352Z 21006KT 12/07 A3026 RMK A01 T01200072  RH  073%=      5-min Rain = 0
KHA2 211353Z 21006KT 12/07 A3026 RMK A01 T01210073  RH  072%=      5-min Rain = 0
KHA2 211354Z 21006KT 12/07 A3026 RMK A01 T01210073  RH  072%=      5-min Rain = 0
KHA2 211355Z 22005KT 12/07 A3026 RMK A01 T01220073  RH  072%=      5-min Rain = 0
KHA2 211356Z 21006KT 12/07 A3026 RMK A01 T01230074  RH  072%=      5-min Rain = 0
KHA2 211357Z 21006KT 12/07 A3026 RMK A01 T01240074  RH  072%=      5-min Rain = 0
KHA2 211358Z 20006KT 13/07 A3026 RMK A01 T01250074  RH  071%=      5-min Rain = 0
KHA2 211359Z 20006KT 13/08 A3026 RMK A01 T01260075  RH  071%=      5-min Rain = 0
KHA2 211400Z 20006KT 13/08 A3026 RMK A01 T01270076  RH  071%=      5-min Rain = 0
KHA2 211401Z 20006KT 13/08 A3026 RMK A01 T01280075  RH  070%=      5-min Rain = 0
KHA2 211402Z 20007KT 13/08 A3026 RMK A01 T01290076  RH  070%=      5-min Rain = 0
KHA2 211403Z 20007KT 13/08 A3026 RMK A01 T01300077  RH  070%=      5-min Rain = 0
KHA2 211404Z 20006KT 13/08 A3026 RMK A01 T01310077  RH  070%=      5-min Rain = 0
KHA2 211405Z 20006KT 13/08 A3026 RMK A01 T01320078  RH  070%=      5-min Rain = 0
KHA2 211406Z 20008KT 13/08 A3026 RMK A01 T01340078  RH  069%=      5-min Rain = 0
KHA2 211407Z 19007KT 13/08 A3026 RMK A01 T01340078  RH  069%=      5-min Rain = 0
KHA2 211408Z 19008KT 14/08 A3026 RMK A01 T01350078  RH  068%=      5-min Rain = 0
KHA2 211409Z 20008KT 14/08 A3026 RMK A01 T01360078  RH  068%=      5-min Rain = 0
KHA2 211410Z 19007KT 14/08 A3026 RMK A01 T01370079  RH  068%=      5-min Rain = 0
KHA2 211411Z 19008KT 14/08 A3026 RMK A01 T01380079  RH  068%=      5-min Rain = 0
KHA2 211412Z 19008KT 14/08 A3026 RMK A01 T01380079  RH  067%=      5-min Rain = 0
KHA2 211413Z 19008KT 14/08 A3026 RMK A01 T01380078  RH  067%=      5-min Rain = 0
KHA2 211414Z 19008KT 14/08 A3026 RMK A01 T01380078  RH  067%=      5-min Rain = 0
KHA2 211415Z 19009KT 14/08 A3026 RMK A01 T01380078  RH  067%=      5-min Rain = 0
KHA2 211416Z 19009KT 14/08 A3026 RMK A01 T01390079  RH  067%=      5-min Rain = 0
KHA2 211417Z 19008KT 14/08 A3026 RMK A01 T01400079  RH  067%=      5-min Rain = 0
KHA2 211418Z 19009KT 14/08 A3026 RMK A01 T01410079  RH  066%=      5-min Rain = 0
KHA2 211419Z 19009KT 14/08 A3026 RMK A01 T01420079  RH  066%=      5-min Rain = 0
KHA2 211420Z 19009KT 14/08 A3026 RMK A01 T01430079  RH  066%=      5-min Rain = 0
KHA2 211421Z 19009KT 14/08 A3026 RMK A01 T01430079  RH  065%=      5-min Rain = 0
KHA2 211422Z 18010KT 14/08 A3026 RMK A01 T01440079  RH  065%=      5-min Rain = 0
KHA2 211423Z 19010KT 15/08 A3026 RMK A01 T01450079  RH  065%=      5-min Rain = 0
KHA2 211424Z 19010KT 15/08 A3026 RMK A01 T01450079  RH  065%=      5-min Rain = 0
KHA2 211425Z 19009KT 15/08 A3026 RMK A01 T01470080  RH  064%=      5-min Rain = 0
KHA2 211426Z 20007KT 15/08 A3026 RMK A01 T01480081  RH  064%=      5-min Rain = 0
KHA2 211427Z 20007KT 15/08 A3026 RMK A01 T01490081  RH  064%=      5-min Rain = 0
KHA2 211428Z 20007KT 15/08 A3026 RMK A01 T01500081  RH  063%=      5-min Rain = 0
KHA2 211429Z 20008KT 15/08 A3026 RMK A01 T01510081  RH  063%=      5-min Rain = 0
KHA2 211430Z 19010KT 15/08 A3026 RMK A01 T01520080  RH  062%=      5-min Rain = 0
KHA2 211431Z 20008KT 15/08 A3027 RMK A01 T01520081  RH  062%=      5-min Rain = 0
KHA2 211432Z 19008KT 16/08 A3027 RMK A01 T01550083  RH  062%=      5-min Rain = 0
KHA2 211433Z 20009KT 16/08 A3027 RMK A01 T01570082  RH  061%=      5-min Rain = 0
KHA2 211434Z 19009KT 16/08 A3027 RMK A01 T01580082  RH  060%=      5-min Rain = 0
KHA2 211435Z 19010KT 16/08 A3027 RMK A01 T01600082  RH  060%=      5-min Rain = 0
KHA2 211436Z 18010KT 16/08 A3027 RMK A01 T01600081  RH  059%=      5-min Rain = 0
KHA2 211437Z 19011KT 16/08 A3027 RMK A01 T01600080  RH  059%=      5-min Rain = 0
KHA2 211438Z 19011KT 16/08 A3027 RMK A01 T01590080  RH  059%=      5-min Rain = 0
KHA2 211439Z 19010KT 16/08 A3027 RMK A01 T01580079  RH  059%=      5-min Rain = 0
KHA2 211440Z 18010KT 16/08 A3027 RMK A01 T01580080  RH  059%=      5-min Rain = 0
KHA2 211441Z 19009KT 16/08 A3027 RMK A01 T01600081  RH  059%=      5-min Rain = 0
KHA2 211442Z 18010KT 16/08 A3027 RMK A01 T01620082  RH  059%=      5-min Rain = 0
KHA2 211443Z 18009KT 16/08 A3027 RMK A01 T01610080  RH  059%=      5-min Rain = 0
KHA2 211444Z 19010KT 16/08 A3027 RMK A01 T01620082  RH  059%=      5-min Rain = 0
KHA2 211445Z 19010KT 16/08 A3027 RMK A01 T01630081  RH  058%=      5-min Rain = 0
KHA2 211446Z 19011KT 16/08 A3027 RMK A01 T01630080  RH  058%=      5-min Rain = 0
KHA2 211447Z 19010KT 16/08 A3027 RMK A01 T01630081  RH  058%=      5-min Rain = 0
KHA2 211448Z 19009KT 16/08 A3027 RMK A01 T01630081  RH  058%=      5-min Rain = 0
KHA2 211449Z 19010KT 16/08 A3027 RMK A01 T01640082  RH  058%=      5-min Rain = 0
KHA2 211450Z 19009KT 17/08 A3027 RMK A01 T01650082  RH  058%=      5-min Rain = 0
KHA2 211451Z 19009KT 17/08 A3027 RMK A01 T01660082  RH  058%=      5-min Rain = 0
KHA2 211452Z 18009KT 17/08 A3027 RMK A01 T01670082  RH  057%=      5-min Rain = 0
KHA2 211453Z 19011KT 17/08 A3027 RMK A01 T01680082  RH  057%=      5-min Rain = 0
KHA2 211454Z 19011KT 17/08 A3027 RMK A01 T01680081  RH  056%=      5-min Rain = 0
KHA2 211455Z 19009KT 17/08 A3027 RMK A01 T01680082  RH  057%=      5-min Rain = 0
KHA2 211456Z 18010KT 17/08 A3027 RMK A01 T01700082  RH  056%=      5-min Rain = 0
KHA2 211457Z 19011KT 17/08 A3027 RMK A01 T01700082  RH  056%=      5-min Rain = 0
KHA2 211458Z 20009KT 17/08 A3027 RMK A01 T01690082  RH  056%=      5-min Rain = 0
KHA2 211459Z 19010KT 17/08 A3027 RMK A01 T01690082  RH  056%=      5-min Rain = 0
KHA2 211500Z 20010KT 17/08 A3027 RMK A01 T01680081  RH  056%=      5-min Rain = 0
KHA2 211501Z 20008KT 17/08 A3027 RMK A01 T01690082  RH  056%=      5-min Rain = 0
KHA2 211502Z 20008KT 17/08 A3027 RMK A01 T01690083  RH  057%=      5-min Rain = 0
KHA2 211503Z 19009KT 17/08 A3027 RMK A01 T01690082  RH  056%=      5-min Rain = 0
KHA2 211504Z 20009KT 17/08 A3027 RMK A01 T01710084  RH  056%=      5-min Rain = 0
KHA2 211505Z 20011KT 18/09 A3027 RMK A01 T01750085  RH  055%=      5-min Rain = 0
KHA2 211506Z 20011KT 18/08 A3027 RMK A01 T01750082  RH  054%=      5-min Rain = 0
KHA2 211507Z 20012KT 18/08 A3027 RMK A01 T01750082  RH  054%=      5-min Rain = 0
KHA2 211508Z 20012KT 18/08 A3027 RMK A01 T01760082  RH  054%=      5-min Rain = 0
KHA2 211509Z 20012KT 18/08 A3027 RMK A01 T01780081  RH  053%=      5-min Rain = 0
KHA2 211510Z 20012KT 18/08 A3027 RMK A01 T01770081  RH  053%=      5-min Rain = 0
KHA2 211511Z 20012KT 18/08 A3027 RMK A01 T01760081  RH  054%=      5-min Rain = 0
KHA2 211512Z 19011KT 18/08 A3027 RMK A01 T01760082  RH  054%=      5-min Rain = 0
KHA2 211513Z 18012KT 18/08 A3027 RMK A01 T01770082  RH  053%=      5-min Rain = 0
KHA2 211514Z 20010KT 18/08 A3027 RMK A01 T01790083  RH  053%=      5-min Rain = 0
KHA2 211515Z 20010KT 18/08 A3027 RMK A01 T01820084  RH  053%=      5-min Rain = 0
KHA2 211516Z 21011KT 18/08 A3027 RMK A01 T01830083  RH  052%=      5-min Rain = 0
KHA2 211517Z 20010KT 18/08 A3027 RMK A01 T01820082  RH  052%=      5-min Rain = 0
KHA2 211518Z 20009KT 18/08 A3027 RMK A01 T01820082  RH  052%=      5-min Rain = 0
KHA2 211519Z 20010KT 18/08 A3027 RMK A01 T01820082  RH  052%=      5-min Rain = 0
KHA2 211520Z 19011KT 18/08 A3027 RMK A01 T01830083  RH  052%=      5-min Rain = 0
KHA2 211521Z 20010KT 18/08 A3027 RMK A01 T01830082  RH  051%=      5-min Rain = 0
KHA2 211522Z 19010KT 18/08 A3027 RMK A01 T01820082  RH  052%=      5-min Rain = 0
KHA2 211523Z 20012KT 18/08 A3027 RMK A01 T01810081  RH  052%=      5-min Rain = 0
KHA2 211524Z 20011KT 18/08 A3027 RMK A01 T01820082  RH  052%=      5-min Rain = 0
KHA2 211525Z 20010KT 18/08 A3027 RMK A01 T01840083  RH  052%=      5-min Rain = 0
KHA2 211526Z 19011KT 19/08 A3027 RMK A01 T01850083  RH  051%=      5-min Rain = 0
KHA2 211527Z 19009KT 19/08 A3027 RMK A01 T01850082  RH  051%=      5-min Rain = 0
KHA2 211528Z 19010KT 19/08 A3027 RMK A01 T01850082  RH  051%=      5-min Rain = 0
KHA2 211529Z 18009KT 19/08 A3027 RMK A01 T01870083  RH  051%=      5-min Rain = 0
KHA2 211530Z 18012KT 19/08 A3027 RMK A01 T01890082  RH  050%=      5-min Rain = 0
KHA2 211531Z 19011KT 19/08 A3027 RMK A01 T01880081  RH  050%=      5-min Rain = 0
KHA2 211532Z 20011KT 19/08 A3027 RMK A01 T01860080  RH  050%=      5-min Rain = 0
KHA2 211533Z 18012KT 19/08 A3027 RMK A01 T01850080  RH  050%=      5-min Rain = 0
KHA2 211534Z 18012KT 19/08 A3027 RMK A01 T01850080  RH  050%=      5-min Rain = 0
KHA2 211535Z 17012KT 19/08 A3027 RMK A01 T01860080  RH  050%=      5-min Rain = 0
KHA2 211536Z 18012KT 19/08 A3027 RMK A01 T01870080  RH  050%=      5-min Rain = 0
KHA2 211537Z 17011KT 19/08 A3027 RMK A01 T01870079  RH  049%=      5-min Rain = 0
KHA2 211538Z 18010KT 19/08 A3027 RMK A01 T01870080  RH  050%=      5-min Rain = 0
KHA2 211539Z 19009KT 19/08 A3027 RMK A01 T01870080  RH  050%=      5-min Rain = 0
KHA2 211540Z 19008KT 19/08 A3027 RMK A01 T01880081  RH  050%=      5-min Rain = 0
KHA2 211541Z 19011KT 19/08 A3027 RMK A01 T01910082  RH  049%=      5-min Rain = 0
KHA2 211542Z 19010KT 19/08 A3027 RMK A01 T01920081  RH  048%=      5-min Rain = 0
KHA2 211543Z 19010KT 19/08 A3027 RMK A01 T01910081  RH  049%=      5-min Rain = 0
KHA2 211544Z 18011KT 19/08 A3027 RMK A01 T01910081  RH  049%=      5-min Rain = 0
KHA2 211545Z 20011KT 19/08 A3027 RMK A01 T01930081  RH  048%=      5-min Rain = 0
KHA2 211546Z 21011KT 19/08 A3027 RMK A01 T01940080  RH  048%=      5-min Rain = 0
KHA2 211547Z 21012KT 20/08 A3027 RMK A01 T01960082  RH  048%=      5-min Rain = 0
KHA2 211548Z 20011KT 20/08 A3027 RMK A01 T01970081  RH  047%=      5-min Rain = 0
KHA2 211549Z 21010KT 20/08 A3027 RMK A01 T01960080  RH  047%=      5-min Rain = 0
KHA2 211550Z 21012KT 20/08 A3027 RMK A01 T01960080  RH  047%=      5-min Rain = 0
KHA2 211551Z 21010KT 20/08 A3027 RMK A01 T01960080  RH  047%=      5-min Rain = 0
KHA2 211552Z 20011KT 20/08 A3027 RMK A01 T01970082  RH  047%=      5-min Rain = 0
KHA2 211553Z 20009KT 20/08 A3027 RMK A01 T01980081  RH  047%=      5-min Rain = 0
KHA2 211554Z 22010KT 20/08 A3027 RMK A01 T01990082  RH  047%=      5-min Rain = 0
KHA2 211555Z 21012KT 20/08 A3027 RMK A01 T02010082  RH  046%=      5-min Rain = 0
KHA2 211556Z 21010KT 20/08 A3027 RMK A01 T02010081  RH  046%=      5-min Rain = 0
KHA2 211557Z 21010KT 20/08 A3027 RMK A01 T02010082  RH  046%=      5-min Rain = 0
KHA2 211558Z 21008KT 20/08 A3027 RMK A01 T02000080  RH  046%=      5-min Rain = 0
KHA2 211559Z 21011KT 20/08 A3027 RMK A01 T01980081  RH  047%=      5-min Rain = 0
KHA2 211600Z 21010KT 20/08 A3027 RMK A01 T02000082  RH  046%=      5-min Rain = 0
KHA2 211601Z 22009KT 20/08 A3027 RMK A01 T02010081  RH  046%=      5-min Rain = 0
KHA2 211602Z 20011KT 20/08 A3027 RMK A01 T02000082  RH  046%=      5-min Rain = 0
KHA2 211603Z 20010KT 20/08 A3027 RMK A01 T02010081  RH  046%=      5-min Rain = 0
KHA2 211604Z 20010KT 20/08 A3027 RMK A01 T02010080  RH  045%=      5-min Rain = 0
KHA2 211605Z 20010KT 20/08 A3027 RMK A01 T02010080  RH  046%=      5-min Rain = 0
KHA2 211606Z 19010KT 20/08 A3027 RMK A01 T02010082  RH  046%=      5-min Rain = 0
KHA2 211607Z 19009KT 20/08 A3027 RMK A01 T02020082  RH  046%=      5-min Rain = 0
KHA2 211608Z 19010KT 21/08 A3027 RMK A01 T02050083  RH  045%=      5-min Rain = 0
KHA2 211609Z 19010KT 21/08 A3027 RMK A01 T02060081  RH  045%=      5-min Rain = 0
KHA2 211610Z 20010KT 21/08 A3027 RMK A01 T02050081  RH  045%=      5-min Rain = 0
KHA2 211611Z 19009KT 21/08 A3027 RMK A01 T02050082  RH  045%=      5-min Rain = 0
KHA2 211612Z 19010KT 21/08 A3027 RMK A01 T02050081  RH  045%=      5-min Rain = 0
KHA2 211613Z 20010KT 21/08 A3027 RMK A01 T02050082  RH  045%=      5-min Rain = 0
KHA2 211614Z 21006KT 20/08 A3027 RMK A01 T02040082  RH  045%=      5-min Rain = 0
KHA2 211615Z 17008G13KT 21/08 A3027 RMK A01 T02050082  RH  045%=      5-min Rain = 0
KHA2 211616Z 20012KT 21/08 A3027 RMK A01 T02060082  RH  045%=      5-min Rain = 0
KHA2 211617Z 21010KT 21/08 A3027 RMK A01 T02070082  RH  045%=      5-min Rain = 0
KHA2 211618Z 20008KT 21/08 A3027 RMK A01 T02070082  RH  045%=      5-min Rain = 0
KHA2 211619Z 21009KT 21/08 A3027 RMK A01 T02070083  RH  045%=      5-min Rain = 0
KHA2 211620Z 22009KT 21/08 A3027 RMK A01 T02090082  RH  044%=      5-min Rain = 0
KHA2 211621Z 21007KT 21/08 A3027 RMK A01 T02080082  RH  044%=      5-min Rain = 0
KHA2 211622Z 22007KT 21/09 A3027 RMK A01 T02110085  RH  044%=      5-min Rain = 0
KHA2 211623Z 21007KT 21/08 A3027 RMK A01 T02130083  RH  043%=      5-min Rain = 0
KHA2 211624Z 20008KT 21/08 A3027 RMK A01 T02130083  RH  043%=      5-min Rain = 0
KHA2 211625Z 21007KT 21/08 A3027 RMK A01 T02120083  RH  043%=      5-min Rain = 0
KHA2 211626Z 19010KT 21/08 A3027 RMK A01 T02140083  RH  043%=      5-min Rain = 0
KHA2 211627Z 19010KT 21/08 A3027 RMK A01 T02140082  RH  043%=      5-min Rain = 0
KHA2 211628Z 21010KT 21/08 A3027 RMK A01 T02130082  RH  043%=      5-min Rain = 0
KHA2 211629Z 22009KT 21/08 A3027 RMK A01 T02120081  RH  043%=      5-min Rain = 0
KHA2 211630Z 21009KT 21/08 A3027 RMK A01 T02110083  RH  044%=      5-min Rain = 0
KHA2 211631Z 21008KT 21/08 A3026 RMK A01 T02120082  RH  043%=      5-min Rain = 0
KHA2 211632Z 22008KT 21/08 A3026 RMK A01 T02110082  RH  043%=      5-min Rain = 0
KHA2 211633Z 19007KT 21/08 A3026 RMK A01 T02110082  RH  044%=      5-min Rain = 0
KHA2 211634Z 21009KT 21/08 A3026 RMK A01 T02120082  RH  043%=      5-min Rain = 0
KHA2 211635Z 22009KT 21/08 A3027 RMK A01 T02110082  RH  043%=      5-min Rain = 0
KHA2 211636Z 20008KT 21/08 A3027 RMK A01 T02110083  RH  044%=      5-min Rain = 0
KHA2 211637Z 21007KT 21/08 A3026 RMK A01 T02120083  RH  043%=      5-min Rain = 0
KHA2 211638Z 20009KT 21/08 A3026 RMK A01 T02140084  RH  043%=      5-min Rain = 0
KHA2 211639Z 20009KT 22/09 A3026 RMK A01 T02170085  RH  043%=      5-min Rain = 0
KHA2 211640Z 20006KT 22/08 A3026 RMK A01 T02180084  RH  042%=      5-min Rain = 0
KHA2 211641Z 20008KT 22/08 A3026 RMK A01 T02180083  RH  042%=      5-min Rain = 0
KHA2 211642Z 20007KT 22/08 A3026 RMK A01 T02180084  RH  042%=      5-min Rain = 0
KHA2 211643Z 20009KT 22/08 A3026 RMK A01 T02180084  RH  042%=      5-min Rain = 0
KHA2 211644Z 20008KT 22/08 A3026 RMK A01 T02190083  RH  042%=      5-min Rain = 0
KHA2 211645Z 21009KT 22/08 A3026 RMK A01 T02180084  RH  042%=      5-min Rain = 0
KHA2 211646Z 20008KT 22/08 A3026 RMK A01 T02190084  RH  042%=      5-min Rain = 0
KHA2 211647Z 21006G11KT 22/08 A3026 RMK A01 T02190083  RH  042%=      5-min Rain = 0
KHA2 211648Z 21009KT 22/08 A3026 RMK A01 T02190083  RH  042%=      5-min Rain = 0
KHA2 211649Z 21007KT 22/08 A3026 RMK A01 T02180082  RH  042%=      5-min Rain = 0
KHA2 211650Z 19006KT 22/08 A3026 RMK A01 T02170083  RH  042%=      5-min Rain = 0
KHA2 211651Z 19008KT 22/08 A3026 RMK A01 T02180084  RH  042%=      5-min Rain = 0
KHA2 211652Z 19007KT 22/08 A3026 RMK A01 T02190083  RH  042%=      5-min Rain = 0
KHA2 211653Z 19007KT 22/08 A3026 RMK A01 T02190084  RH  042%=      5-min Rain = 0
KHA2 211654Z 21007KT 22/09 A3026 RMK A01 T02210086  RH  042%=      5-min Rain = 0
KHA2 211655Z 21006KT 22/09 A3026 RMK A01 T02220085  RH  041%=      5-min Rain = 0
KHA2 211656Z 22007KT 22/09 A3026 RMK A01 T02230086  RH  041%=      5-min Rain = 0
KHA2 211657Z 23008KT 22/08 A3026 RMK A01 T02230084  RH  041%=      5-min Rain = 0
KHA2 211658Z 23006KT 22/08 A3026 RMK A01 T02230084  RH  041%=      5-min Rain = 0
KHA2 211659Z 21007KT 22/09 A3026 RMK A01 T02230085  RH  041%=      5-min Rain = 0
KHA2 211700Z 18007KT 22/08 A3026 RMK A01 T02220084  RH  041%=      5-min Rain = 0
KHA2 211701Z 18008KT 22/08 A3026 RMK A01 T02220083  RH  041%=      5-min Rain = 0
KHA2 211702Z 18007KT 22/08 A3026 RMK A01 T02210081  RH  041%=      5-min Rain = 0
KHA2 211703Z 17005KT 22/08 A3026 RMK A01 T02200081  RH  041%=      5-min Rain = 0
KHA2 211704Z 18007KT 22/08 A3026 RMK A01 T02210083  RH  041%=      5-min Rain = 0
KHA2 211705Z 18008KT 22/08 A3026 RMK A01 T02240084  RH  041%=      5-min Rain = 0
KHA2 211706Z 18006KT 23/08 A3026 RMK A01 T02250083  RH  040%=      5-min Rain = 0
KHA2 211707Z 19005KT 22/08 A3026 RMK A01 T02240083  RH  040%=      5-min Rain = 0
KHA2 211708Z 17003KT 22/08 A3026 RMK A01 T02220082  RH  041%=      5-min Rain = 0
KHA2 211709Z 22009KT 22/09 A3026 RMK A01 T02230085  RH  041%=      5-min Rain = 0
KHA2 211710Z 21009KT 22/09 A3026 RMK A01 T02240085  RH  041%=      5-min Rain = 0
KHA2 211711Z 19010KT 23/09 A3026 RMK A01 T02270085  RH  040%=      5-min Rain = 0
KHA2 211712Z 18009KT 23/08 A3026 RMK A01 T02290084  RH  040%=      5-min Rain = 0
KHA2 211713Z 17008KT 23/08 A3026 RMK A01 T02300084  RH  039%=      5-min Rain = 0
KHA2 211714Z 18006KT 23/08 A3026 RMK A01 T02320083  RH  038%=      5-min Rain = 0
KHA2 211715Z 20007KT 23/08 A3026 RMK A01 T02310082  RH  039%=      5-min Rain = 0
KHA2 211716Z 18007KT 23/08 A3026 RMK A01 T02290082  RH  039%=      5-min Rain = 0
KHA2 211717Z 17005KT 23/08 A3026 RMK A01 T02290081  RH  039%=      5-min Rain = 0
KHA2 211718Z 19007KT 23/08 A3026 RMK A01 T02270081  RH  039%=      5-min Rain = 0
KHA2 211719Z 18009KT 23/08 A3026 RMK A01 T02290083  RH  039%=      5-min Rain = 0
KHA2 211720Z 18007KT 23/08 A3026 RMK A01 T02310081  RH  038%=      5-min Rain = 0
KHA2 211721Z 19006KT 23/08 A3026 RMK A01 T02300081  RH  038%=      5-min Rain = 0
KHA2 211722Z 18004KT 23/08 A3025 RMK A01 T02290082  RH  039%=      5-min Rain = 0
KHA2 211723Z 16005KT 23/08 A3025 RMK A01 T02300082  RH  039%=      5-min Rain = 0
KHA2 211724Z 19005KT 23/08 A3025 RMK A01 T02290082  RH  039%=      5-min Rain = 0
KHA2 211725Z 22008KT 23/08 A3025 RMK A01 T02290083  RH  039%=      5-min Rain = 0
KHA2 211726Z 21009KT 23/08 A3025 RMK A01 T02320084  RH  039%=      5-min Rain = 0
KHA2 211727Z 21008KT 23/08 A3025 RMK A01 T02340084  RH  038%=      5-min Rain = 0
KHA2 211728Z 23007KT 24/08 A3025 RMK A01 T02350083  RH  038%=      5-min Rain = 0
KHA2 211729Z 23005KT 23/08 A3025 RMK A01 T02310081  RH  038%=      5-min Rain = 0
KHA2 211730Z 20004KT 23/08 A3025 RMK A01 T02300081  RH  038%=      5-min Rain = 0
KHA2 211731Z 18003KT 23/08 A3025 RMK A01 T02320083  RH  038%=      5-min Rain = 0
KHA2 211732Z 19006KT 23/08 A3025 RMK A01 T02340083  RH  038%=      5-min Rain = 0
KHA2 211733Z 22009KT 24/08 A3025 RMK A01 T02350082  RH  037%=      5-min Rain = 0
KHA2 211734Z 22005KT 24/08 A3025 RMK A01 T02350080  RH  037%=      5-min Rain = 0
KHA2 211735Z 25003KT 23/08 A3025 RMK A01 T02320079  RH  037%=      5-min Rain = 0
KHA2 211736Z 20005KT 23/08 A3025 RMK A01 T02310081  RH  038%=      5-min Rain = 0
KHA2 211737Z 16007KT 23/08 A3025 RMK A01 T02340083  RH  038%=      5-min Rain = 0
KHA2 211738Z 18005KT 24/08 A3025 RMK A01 T02350082  RH  037%=      5-min Rain = 0
KHA2 211739Z 21007KT 24/08 A3025 RMK A01 T02380084  RH  037%=      5-min Rain = 0
KHA2 211740Z 18007KT 24/08 A3025 RMK A01 T02390083  RH  037%=      5-min Rain = 0
KHA2 211741Z 20006KT 24/08 A3025 RMK A01 T02400082  RH  036%=      5-min Rain = 0
KHA2 211742Z 20007G13KT 24/08 A3025 RMK A01 T02420083  RH  036%=      5-min Rain = 0
KHA2 211743Z 18006KT 25/08 A3025 RMK A01 T02460084  RH  036%=      5-min Rain = 0
KHA2 211744Z 17006KT 25/08 A3025 RMK A01 T02460082  RH  035%=      5-min Rain = 0
KHA2 211745Z 17005KT 24/08 A3025 RMK A01 T02410080  RH  036%=      5-min Rain = 0
KHA2 211746Z 15006KT 24/08 A3025 RMK A01 T02410082  RH  036%=      5-min Rain = 0
KHA2 211747Z 15007KT 24/08 A3025 RMK A01 T02430081  RH  036%=      5-min Rain = 0
KHA2 211748Z 16009KT 24/08 A3025 RMK A01 T02430081  RH  036%=      5-min Rain = 0
KHA2 211749Z 17009KT 25/08 A3025 RMK A01 T02450083  RH  036%=      5-min Rain = 0
KHA2 211750Z 18005KT 24/08 A3025 RMK A01 T02440081  RH  035%=      5-min Rain = 0
KHA2 211751Z 19004KT 24/08 A3025 RMK A01 T02410080  RH  036%=      5-min Rain = 0
KHA2 211752Z 15005KT 24/08 A3025 RMK A01 T02410081  RH  036%=      5-min Rain = 0
KHA2 211753Z 15007KT 24/08 A3025 RMK A01 T02430081  RH  035%=      5-min Rain = 0
KHA2 211754Z 16008KT 24/08 A3025 RMK A01 T02440079  RH  035%=      5-min Rain = 0
KHA2 211755Z 16006KT 24/08 A3025 RMK A01 T02440077  RH  034%=      5-min Rain = 0
KHA2 211756Z 16005KT 24/07 A3025 RMK A01 T02410074  RH  034%=      5-min Rain = 0
KHA2 211757Z 18005KT 24/07 A3025 RMK A01 T02410074  RH  034%=      5-min Rain = 0
KHA2 211758Z 19004KT 24/08 A3025 RMK A01 T02410076  RH  035%=      5-min Rain = 0
KHA2 211759Z 19009KT 24/07 A3025 RMK A01 T02420074  RH  034%=      5-min Rain = 0
KHA2 211800Z 18005KT 24/07 A3025 RMK A01 T02420072  RH  034%=      5-min Rain = 0
KHA2 211801Z 19005KT 24/07 A3025 RMK A01 T02410070  RH  033%=      5-min Rain = 0
KHA2 211802Z 23004KT 24/07 A3024 RMK A01 T02410074  RH  034%=      5-min Rain = 0
KHA2 211803Z 20007KT 24/08 A3024 RMK A01 T02430076  RH  034%=      5-min Rain = 0
KHA2 211804Z 19004KT 24/08 A3024 RMK A01 T02440078  RH  035%=      5-min Rain = 0
KHA2 211805Z 19006KT 24/08 A3024 RMK A01 T02440076  RH  034%=      5-min Rain = 0
KHA2 211806Z 19009KT 25/08 A3024 RMK A01 T02460079  RH  034%=      5-min Rain = 0
KHA2 211807Z 19010KT 25/08 A3024 RMK A01 T02520078  RH  033%=      5-min Rain = 0
KHA2 211808Z 21008KT 25/08 A3024 RMK A01 T02510075  RH  033%=      5-min Rain = 0
KHA2 211809Z 22007KT 25/07 A3024 RMK A01 T02470074  RH  033%=      5-min Rain = 0
KHA2 211810Z 19008KT 24/07 A3024 RMK A01 T02430073  RH  034%=      5-min Rain = 0
KHA2 211811Z 18007KT 24/07 A3024 RMK A01 T02440073  RH  034%=      5-min Rain = 0
KHA2 211812Z 17004KT 24/07 A3024 RMK A01 T02420072  RH  034%=      5-min Rain = 0
KHA2 211813Z 20006KT 24/07 A3024 RMK A01 T02410073  RH  034%=      5-min Rain = 0
KHA2 211814Z 22004KT 24/07 A3024 RMK A01 T02420074  RH  034%=      5-min Rain = 0
KHA2 211815Z 22005KT 24/07 A3024 RMK A01 T02430074  RH  034%=      5-min Rain = 0
KHA2 211816Z 20004KT 24/08 A3024 RMK A01 T02420076  RH  035%=      5-min Rain = 0
KHA2 211817Z 19006KT 24/08 A3024 RMK A01 T02430075  RH  034%=      5-min Rain = 0
KHA2 211818Z 17008G13KT 25/07 A3024 RMK A01 T02450074  RH  033%=      5-min Rain = 0
KHA2 211819Z 16011KT 25/07 A3024 RMK A01 T02480071  RH  032%=      5-min Rain = 0
KHA2 211820Z 15009KT 25/07 A3024 RMK A01 T02450070  RH  032%=      5-min Rain = 0
KHA2 211821Z 15008KT 24/07 A3024 RMK A01 T02430070  RH  033%=      5-min Rain = 0
KHA2 211822Z 13005KT 24/07 A3024 RMK A01 T02420070  RH  033%=      5-min Rain = 0
KHA2 211823Z 12004KT 24/07 A3024 RMK A01 T02420067  RH  033%=      5-min Rain = 0
KHA2 211824Z 17009KT 24/07 A3024 RMK A01 T02430069  RH  033%=      5-min Rain = 0
KHA2 211825Z 20010KT 25/07 A3024 RMK A01 T02480072  RH  033%=      5-min Rain = 0
KHA2 211826Z 20008KT 25/07 A3024 RMK A01 T02490068  RH  031%=      5-min Rain = 0
KHA2 211827Z 18007KT 25/07 A3024 RMK A01 T02480067  RH  031%=      5-min Rain = 0
KHA2 211828Z 19008KT 25/07 A3024 RMK A01 T02470066  RH  031%=      5-min Rain = 0
KHA2 211829Z 20005KT 25/07 A3024 RMK A01 T02470066  RH  031%=      5-min Rain = 0
KHA2 211830Z 18007KT 25/07 A3024 RMK A01 T02470070  RH  032%=      5-min Rain = 0
KHA2 211831Z 18006KT 25/07 A3024 RMK A01 T02480071  RH  032%=      5-min Rain = 0
KHA2 211832Z 20005KT 25/07 A3024 RMK A01 T02480070  RH  032%=      5-min Rain = 0
KHA2 211833Z 20006KT 25/07 A3024 RMK A01 T02480070  RH  032%=      5-min Rain = 0
KHA2 211834Z 18003KT 25/07 A3024 RMK A01 T02470070  RH  032%=      5-min Rain = 0
KHA2 211835Z 17003KT 25/07 A3024 RMK A01 T02450071  RH  033%=      5-min Rain = 0
KHA2 211836Z 18007KT 25/07 A3023 RMK A01 T02470070  RH  032%=      5-min Rain = 0
KHA2 211837Z 20007KT 26/07 A3023 RMK A01 T02550070  RH  031%=      5-min Rain = 0
KHA2 211838Z 20007KT 26/07 A3023 RMK A01 T02580066  RH  029%=      5-min Rain = 0
KHA2 211839Z 20007KT 26/06 A3023 RMK A01 T02560061  RH  029%=      5-min Rain = 0
KHA2 211840Z 19009KT 25/06 A3023 RMK A01 T02530062  RH  029%=      5-min Rain = 0
KHA2 211841Z 19008KT 25/06 A3023 RMK A01 T02530062  RH  029%=      5-min Rain = 0
KHA2 211842Z 19004G9KT 26/06 A3023 RMK A01 T02560063  RH  029%=      5-min Rain = 0
KHA2 211843Z 18005KT 26/06 A3023 RMK A01 T02550063  RH  029%=      5-min Rain = 0
KHA2 211844Z 16005KT 25/06 A3023 RMK A01 T02540063  RH  029%=      5-min Rain = 0
KHA2 211845Z 15005KT 25/07 A3023 RMK A01 T02530065  RH  030%=      5-min Rain = 0
KHA2 211846Z 14005KT 25/07 A3023 RMK A01 T02530067  RH  030%=      5-min Rain = 0
KHA2 211847Z 16006KT 25/07 A3023 RMK A01 T02540068  RH  030%=      5-min Rain = 0
KHA2 211848Z 15009KT 26/07 A3023 RMK A01 T02550067  RH  030%=      5-min Rain = 0
KHA2 211849Z 14006KT 26/07 A3023 RMK A01 T02550066  RH  030%=      5-min Rain = 0
KHA2 211850Z 13005KT 25/07 A3023 RMK A01 T02540065  RH  030%=      5-min Rain = 0
KHA2 211851Z 13005KT 25/06 A3022 RMK A01 T02530064  RH  030%=      5-min Rain = 0
KHA2 211852Z 16007KT 25/07 A3022 RMK A01 T02530066  RH  030%=      5-min Rain = 0
KHA2 211853Z 20008KT 25/07 A3022 RMK A01 T02540069  RH  031%=      5-min Rain = 0
KHA2 211854Z 19008KT 26/07 A3022 RMK A01 T02550069  RH  030%=      5-min Rain = 0
KHA2 211855Z 18008KT 26/07 A3022 RMK A01 T02580070  RH  030%=      5-min Rain = 0
KHA2 211856Z 19008KT 26/07 A3022 RMK A01 T02600070  RH  030%=      5-min Rain = 0
KHA2 211857Z 19008KT 26/07 A3022 RMK A01 T02580068  RH  030%=      5-min Rain = 0
KHA2 211858Z 19003KT 26/07 A3022 RMK A01 T02550068  RH  030%=      5-min Rain = 0
KHA2 211859Z 16005KT 26/07 A3022 RMK A01 T02560070  RH  031%=      5-min Rain = 0
KHA2 211900Z 18007KT 26/07 A3022 RMK A01 T02570068  RH  030%=      5-min Rain = 0
KHA2 211901Z 22008KT 26/07 A3022 RMK A01 T02570068  RH  030%=      5-min Rain = 0
KHA2 211902Z 22008KT 26/07 A3022 RMK A01 T02560069  RH  030%=      5-min Rain = 0
KHA2 211903Z 21006KT 26/07 A3022 RMK A01 T02550068  RH  030%=      5-min Rain = 0
KHA2 211904Z 18009KT 26/07 A3022 RMK A01 T02560071  RH  031%=      5-min Rain = 0
KHA2 211905Z 16011KT 26/08 A3022 RMK A01 T02620075  RH  030%=      5-min Rain = 0
KHA2 211906Z 15010KT 26/07 A3022 RMK A01 T02610071  RH  030%=      5-min Rain = 0
KHA2 211907Z 15009KT 26/07 A3022 RMK A01 T02590070  RH  030%=      5-min Rain = 0
KHA2 211908Z 15009KT 26/07 A3022 RMK A01 T02580069  RH  030%=      5-min Rain = 0
KHA2 211909Z 14009KT 26/07 A3022 RMK A01 T02580068  RH  030%=      5-min Rain = 0
KHA2 211910Z 17008KT 26/07 A3022 RMK A01 T02580069  RH  030%=      5-min Rain = 0
KHA2 211911Z 17007KT 26/07 A3022 RMK A01 T02570071  RH  031%=      5-min Rain = 0
KHA2 211912Z 15008KT 26/07 A3022 RMK A01 T02570070  RH  030%=      5-min Rain = 0
KHA2 211913Z 16006KT 26/07 A3022 RMK A01 T02570068  RH  030%=      5-min Rain = 0
KHA2 211914Z 16004KT 26/07 A3022 RMK A01 T02560067  RH  030%=      5-min Rain = 0
KHA2 211915Z 05002KT 25/07 A3021 RMK A01 T02540066  RH  030%=      5-min Rain = 0
KHA2 211916Z 10001KT 25/07 A3021 RMK A01 T02510067  RH  031%=      5-min Rain = 0
KHA2 211917Z 19006KT 26/07 A3021 RMK A01 T02550072  RH  031%=      5-min Rain = 0
KHA2 211918Z 18011KT 26/07 A3021 RMK A01 T02580071  RH  030%=      5-min Rain = 0
KHA2 211919Z 18012KT 26/07 A3021 RMK A01 T02620071  RH  030%=      5-min Rain = 0
KHA2 211920Z 18009KT 26/07 A3021 RMK A01 T02620070  RH  030%=      5-min Rain = 0
KHA2 211921Z 16007KT 26/07 A3021 RMK A01 T02600069  RH  030%=      5-min Rain = 0
KHA2 211922Z 17007G13KT 26/07 A3021 RMK A01 T02570066  RH  030%=      5-min Rain = 0
KHA2 211923Z 18008KT 26/07 A3021 RMK A01 T02570066  RH  029%=      5-min Rain = 0
KHA2 211924Z 17008KT 26/07 A3021 RMK A01 T02580066  RH  029%=      5-min Rain = 0
KHA2 211925Z 16007KT 26/07 A3021 RMK A01 T02590065  RH  029%=      5-min Rain = 0
KHA2 211926Z 15006KT 26/06 A3021 RMK A01 T02560062  RH  029%=      5-min Rain = 0
KHA2 211927Z 15004KT 26/06 A3021 RMK A01 T02550063  RH  029%=      5-min Rain = 0
KHA2 211928Z 17005KT 25/06 A3021 RMK A01 T02540063  RH  029%=      5-min Rain = 0
KHA2 211929Z 16004KT 26/07 A3021 RMK A01 T02550066  RH  030%=      5-min Rain = 0
KHA2 211930Z 18008KT 26/07 A3021 RMK A01 T02580070  RH  030%=      5-min Rain = 0
KHA2 211931Z 17008KT 26/07 A3021 RMK A01 T02610070  RH  030%=      5-min Rain = 0
KHA2 211932Z 16007KT 26/07 A3021 RMK A01 T02610069  RH  029%=      5-min Rain = 0
KHA2 211933Z 17005KT 26/07 A3021 RMK A01 T02610068  RH  029%=      5-min Rain = 0
KHA2 211934Z 15008KT 26/07 A3021 RMK A01 T02600066  RH  029%=      5-min Rain = 0
KHA2 211935Z 14009KT 26/06 A3021 RMK A01 T02570063  RH  029%=      5-min Rain = 0
KHA2 211936Z 14005KT 26/06 A3021 RMK A01 T02560063  RH  029%=      5-min Rain = 0
KHA2 211937Z 17004KT 25/06 A3021 RMK A01 T02540064  RH  030%=      5-min Rain = 0
KHA2 211938Z 17007KT 26/07 A3021 RMK A01 T02550065  RH  030%=      5-min Rain = 0
KHA2 211939Z 17009KT 26/06 A3021 RMK A01 T02550064  RH  030%=      5-min Rain = 0
KHA2 211940Z 18008KT 26/06 A302 RMK A01 T02560064  RH  029%=      5-min Rain = 0
KHA2 211941Z 18006KT 26/06 A3021 RMK A01 T02550063  RH  029%=      5-min Rain = 0
KHA2 211942Z 17002KT 26/06 A302 RMK A01 T02550064  RH  029%=      5-min Rain = 0
KHA2 211943Z 16000KT 26/07 A302 RMK A01 T02560065  RH  029%=      5-min Rain = 0
KHA2 211944Z 27001KT 26/06 A302 RMK A01 T02580064  RH  029%=      5-min Rain = 0
KHA2 211945Z 15007KT 26/06 A302 RMK A01 T02610064  RH  029%=      5-min Rain = 0
KHA2 211946Z 15005KT 26/06 A302 RMK A01 T02620062  RH  028%=      5-min Rain = 0
KHA2 211947Z 15006KT 26/06 A302 RMK A01 T02600062  RH  028%=      5-min Rain = 0
KHA2 211948Z 13004KT 26/06 A302 RMK A01 T02610060  RH  028%=      5-min Rain = 0
KHA2 211949Z 14007KT 26/06 A302 RMK A01 T02610060  RH  028%=      5-min Rain = 0
KHA2 211950Z 12007KT 26/06 A302 RMK A01 T02620058  RH  027%=      5-min Rain = 0
KHA2 211951Z 14008G13KT 26/06 A302 RMK A01 T02640061  RH  027%=      5-min Rain = 0
KHA2 211952Z 13011KT 27/06 A302 RMK A01 T02680059  RH  026%=      5-min Rain = 0
KHA2 211953Z 13007KT 26/06 A302 RMK A01 T02630055  RH  026%=      5-min Rain = 0
KHA2 211954Z 11006KT 26/06 A302 RMK A01 T02590055  RH  027%=      5-min Rain = 0
KHA2 211955Z 15005KT 26/06 A302 RMK A01 T02570057  RH  028%=      5-min Rain = 0
KHA2 211956Z 16008KT 26/06 A302 RMK A01 T02600062  RH  028%=      5-min Rain = 0
KHA2 211957Z 15006KT 26/06 A302 RMK A01 T02610059  RH  028%=      5-min Rain = 0
KHA2 211958Z 15004KT 26/06 A302 RMK A01 T02600060  RH  028%=      5-min Rain = 0
KHA2 211959Z 13002KT 26/06 A3019 RMK A01 T02600060  RH  028%=      5-min Rain = 0
KHA2 212000Z 18003KT 26/06 A3019 RMK A01 T02610061  RH  028%=      5-min Rain = 0
KHA2 212001Z 16009KT 27/07 A3019 RMK A01 T02650065  RH  028%=      5-min Rain = 0
KHA2 212002Z 15011KT 27/06 A3019 RMK A01 T02690062  RH  027%=      5-min Rain = 0
KHA2 212003Z 15010KT 27/06 A3019 RMK A01 T02680060  RH  026%=      5-min Rain = 0
KHA2 212004Z 16004KT 27/06 A3019 RMK A01 T02650058  RH  027%=      5-min Rain = 0
KHA2 212005Z 18008KT 26/06 A3019 RMK A01 T02640060  RH  027%=      5-min Rain = 0
KHA2 212006Z 19009KT 27/06 A3019 RMK A01 T02650060  RH  027%=      5-min Rain = 0
KHA2 212007Z 19009KT 27/06 A3019 RMK A01 T02670062  RH  027%=      5-min Rain = 0
KHA2 212008Z 19007KT 27/06 A3019 RMK A01 T02670062  RH  027%=      5-min Rain = 0
KHA2 212009Z 17005KT 26/06 A3019 RMK A01 T02640061  RH  027%=      5-min Rain = 0
KHA2 212010Z 15004KT 26/06 A3019 RMK A01 T02610060  RH  028%=      5-min Rain = 0
KHA2 212011Z 15005KT 26/06 A3019 RMK A01 T02610060  RH  028%=      5-min Rain = 0
KHA2 212012Z 14008KT 26/06 A3019 RMK A01 T02610062  RH  028%=      5-min Rain = 0
KHA2 212013Z 14009KT 26/06 A3019 RMK A01 T02610064  RH  028%=      5-min Rain = 0
KHA2 212014Z 16010KT 26/06 A3019 RMK A01 T02620064  RH  028%=      5-min Rain = 0
KHA2 212015Z 16008KT 26/06 A3019 RMK A01 T02630062  RH  028%=      5-min Rain = 0
KHA2 212016Z 15009KT 26/06 A3019 RMK A01 T02630063  RH  028%=      5-min Rain = 0
KHA2 212017Z 14010KT 27/06 A3019 RMK A01 T02660063  RH  027%=      5-min Rain = 0
KHA2 212018Z 13008KT 27/06 A3019 RMK A01 T02660061  RH  027%=      5-min Rain = 0
KHA2 212019Z 12008KT 26/06 A3019 RMK A01 T02640058  RH  027%=      5-min Rain = 0
KHA2 212020Z 12005KT 26/06 A3019 RMK A01 T02620059  RH  027%=      5-min Rain = 0
KHA2 212021Z 14006KT 26/06 A3019 RMK A01 T02620062  RH  028%=      5-min Rain = 0
KHA2 212022Z 14006KT 26/06 A3019 RMK A01 T02630061  RH  028%=      5-min Rain = 0
KHA2 212023Z 14007KT 26/06 A3018 RMK A01 T02640059  RH  027%=      5-min Rain = 0
KHA2 212024Z 13008KT 27/06 A3018 RMK A01 T02660058  RH  026%=      5-min Rain = 0
KHA2 212025Z 14012KT 27/06 A3018 RMK A01 T02670057  RH  026%=      5-min Rain = 0
KHA2 212026Z 14008KT 27/05 A3018 RMK A01 T02660054  RH  026%=      5-min Rain = 0
KHA2 212027Z 13009KT 26/05 A3018 RMK A01 T02640054  RH  026%=      5-min Rain = 0
KHA2 212028Z 14006KT 27/05 A3018 RMK A01 T02650054  RH  026%=      5-min Rain = 0
KHA2 212029Z 11004KT 27/05 A3018 RMK A01 T02650053  RH  026%=      5-min Rain = 0
KHA2 212030Z 12003KT 26/05 A3018 RMK A01 T02640052  RH  026%=      5-min Rain = 0
KHA2 212031Z 19005KT 27/06 A3018 RMK A01 T02650056  RH  026%=      5-min Rain = 0
KHA2 212032Z 16007KT 27/06 A3018 RMK A01 T02680059  RH  026%=      5-min Rain = 0
KHA2 212033Z 18010KT 27/06 A3018 RMK A01 T02720060  RH  026%=      5-min Rain = 0
KHA2 212034Z 17011KT 27/06 A3018 RMK A01 T02720060  RH  026%=      5-min Rain = 0
KHA2 212035Z 17009KT 27/06 A3018 RMK A01 T02680059  RH  026%=      5-min Rain = 0
KHA2 212036Z 19007KT 27/06 A3018 RMK A01 T02660059  RH  027%=      5-min Rain = 0
KHA2 212037Z 17005KT 27/06 A3018 RMK A01 T02670058  RH  026%=      5-min Rain = 0
KHA2 212038Z 15008G13KT 27/06 A3018 RMK A01 T02680059  RH  026%=      5-min Rain = 0
KHA2 212039Z 15005KT 27/06 A3018 RMK A01 T02700058  RH  026%=      5-min Rain = 0
KHA2 212040Z 17007KT 27/06 A3018 RMK A01 T02690058  RH  026%=      5-min Rain = 0
KHA2 212041Z 15005KT 27/06 A3018 RMK A01 T02680058  RH  026%=      5-min Rain = 0
KHA2 212042Z 14008G13KT 27/06 A3018 RMK A01 T02680058  RH  026%=      5-min Rain = 0
KHA2 212043Z 13011KT 27/06 A3017 RMK A01 T02680058  RH  026%=      5-min Rain = 0
KHA2 212044Z 12008KT 27/06 A3017 RMK A01 T02690058  RH  026%=      5-min Rain = 0
KHA2 212045Z 12006KT 27/06 A3017 RMK A01 T02680057  RH  026%=      5-min Rain = 0
KHA2 212046Z 11008KT 27/06 A3017 RMK A01 T02660056  RH  026%=      5-min Rain = 0
KHA2 212047Z 12006KT 27/06 A3017 RMK A01 T02650057  RH  027%=      5-min Rain = 0
KHA2 212048Z 13008KT 27/06 A3017 RMK A01 T02660058  RH  026%=      5-min Rain = 0
KHA2 212049Z 13009KT 27/06 A3017 RMK A01 T02650055  RH  026%=      5-min Rain = 0
KHA2 212050Z 16010KT 26/06 A3017 RMK A01 T02640055  RH  026%=      5-min Rain = 0
KHA2 212051Z 17009KT 26/06 A3017 RMK A01 T02630055  RH  026%=      5-min Rain = 0
KHA2 212052Z 16011KT 26/05 A3017 RMK A01 T02640054  RH  026%=      5-min Rain = 0
KHA2 212053Z 16007KT 27/05 A3017 RMK A01 T02660052  RH  025%=      5-min Rain = 0
KHA2 212054Z 17006KT 27/05 A3017 RMK A01 T02660053  RH  026%=      5-min Rain = 0
KHA2 212055Z 17004KT 27/05 A3017 RMK A01 T02650052  RH  026%=      5-min Rain = 0
KHA2 212056Z 15007KT 26/05 A3017 RMK A01 T02640053  RH  026%=      5-min Rain = 0
KHA2 212057Z 15010KT 27/05 A3017 RMK A01 T02680052  RH  025%=      5-min Rain = 0
KHA2 212058Z 16007KT 27/05 A3017 RMK A01 T02700049  RH  024%=      5-min Rain = 0
KHA2 212059Z 14010KT 27/05 A3017 RMK A01 T02680049  RH  025%=      5-min Rain = 0
KHA2 212100Z 13006KT 27/05 A3017 RMK A01 T02670047  RH  024%=      5-min Rain = 0
KHA2 212101Z 14005KT 26/04 A3017 RMK A01 T02640043  RH  024%=      5-min Rain = 0
KHA2 212102Z 15010KT 26/05 A3017 RMK A01 T02640049  RH  025%=      5-min Rain = 0
KHA2 212103Z 16009KT 27/05 A3017 RMK A01 T02670051  RH  025%=      5-min Rain = 0
KHA2 212104Z 15007KT 27/05 A3017 RMK A01 T02690052  RH  025%=      5-min Rain = 0
KHA2 212105Z 16010KT 27/05 A3017 RMK A01 T02690050  RH  025%=      5-min Rain = 0
KHA2 212106Z 15008KT 27/05 A3017 RMK A01 T02680050  RH  025%=      5-min Rain = 0
KHA2 212107Z 16006KT 27/05 A3017 RMK A01 T02660049  RH  025%=      5-min Rain = 0
KHA2 212108Z 17007KT 27/05 A3017 RMK A01 T02660050  RH  025%=      5-min Rain = 0
KHA2 212109Z 16003KT 27/05 A3017 RMK A01 T02660049  RH  025%=      5-min Rain = 0
KHA2 212110Z 14006KT 27/05 A3017 RMK A01 T02660052  RH  026%=      5-min Rain = 0
KHA2 212111Z 13004KT 27/06 A3017 RMK A01 T02670057  RH  026%=      5-min Rain = 0
KHA2 212112Z 14006KT 27/06 A3016 RMK A01 T02680059  RH  026%=      5-min Rain = 0
KHA2 212113Z 16010KT 27/06 A3016 RMK A01 T02710056  RH  025%=      5-min Rain = 0
KHA2 212114Z 17009KT 27/05 A3016 RMK A01 T02700053  RH  025%=      5-min Rain = 0
KHA2 212115Z 18008KT 27/05 A3016 RMK A01 T02690049  RH  024%=      5-min Rain = 0
KHA2 212116Z 18010KT 27/05 A3016 RMK A01 T02690047  RH  024%=      5-min Rain = 0
KHA2 212117Z 18008KT 27/05 A3016 RMK A01 T02700048  RH  024%=      5-min Rain = 0
KHA2 212118Z 18006KT 27/05 A3016 RMK A01 T02690047  RH  024%=      5-min Rain = 0
KHA2 212119Z 17005KT 27/05 A3016 RMK A01 T02680049  RH  025%=      5-min Rain = 0
KHA2 212120Z 14006G12KT 27/05 A3016 RMK A01 T02680050  RH  025%=      5-min Rain = 0
KHA2 212121Z 16010KT 27/05 A3016 RMK A01 T02690052  RH  025%=      5-min Rain = 0
KHA2 212122Z 17011KT 27/05 A3016 RMK A01 T02700051  RH  025%=      5-min Rain = 0
KHA2 212123Z 18010KT 27/05 A3016 RMK A01 T02690049  RH  024%=      5-min Rain = 0
KHA2 212124Z 19008KT 27/05 A3016 RMK A01 T02680048  RH  024%=      5-min Rain = 0
KHA2 212125Z 16010KT 27/05 A3016 RMK A01 T02690048  RH  024%=      5-min Rain = 0
KHA2 212126Z 16011KT 27/05 A3016 RMK A01 T02690045  RH  024%=      5-min Rain = 0
KHA2 212127Z 16009KT 27/04 A3016 RMK A01 T02690044  RH  024%=      5-min Rain = 0
KHA2 212128Z 17007KT 27/04 A3016 RMK A01 T02690042  RH  023%=      5-min Rain = 0
KHA2 212129Z 15008KT 27/04 A3016 RMK A01 T02690043  RH  023%=      5-min Rain = 0
KHA2 212130Z 15005KT 27/04 A3016 RMK A01 T02730042  RH  023%=      5-min Rain = 0
KHA2 212131Z 15009KT 27/04 A3016 RMK A01 T02730042  RH  023%=      5-min Rain = 0
KHA2 212132Z 14008KT 27/05 A3016 RMK A01 T02720047  RH  024%=      5-min Rain = 0
KHA2 212133Z 14008KT 27/05 A3016 RMK A01 T02690047  RH  024%=      5-min Rain = 0
KHA2 212134Z 14006KT 27/05 A3016 RMK A01 T02680048  RH  024%=      5-min Rain = 0
KHA2 212135Z 14006KT 27/05 A3016 RMK A01 T02670048  RH  025%=      5-min Rain = 0
KHA2 212136Z 15009KT 27/05 A3016 RMK A01 T02670048  RH  025%=      5-min Rain = 0
KHA2 212137Z 15009KT 27/05 A3016 RMK A01 T02680046  RH  024%=      5-min Rain = 0
KHA2 212138Z 17011KT 27/05 A3016 RMK A01 T02690046  RH  024%=      5-min Rain = 0
KHA2 212139Z 18008KT 27/04 A3016 RMK A01 T02700043  RH  023%=      5-min Rain = 0
KHA2 212140Z 18007KT 27/04 A3016 RMK A01 T02700044  RH  023%=      5-min Rain = 0
KHA2 212141Z 16008KT 27/05 A3016 RMK A01 T02710046  RH  024%=      5-min Rain = 0
KHA2 212142Z 15010KT 27/05 A3016 RMK A01 T02730045  RH  023%=      5-min Rain = 0
KHA2 212143Z 15009KT 27/05 A3016 RMK A01 T02730046  RH  023%=      5-min Rain = 0
KHA2 212144Z 14008KT 27/05 A3016 RMK A01 T02740046  RH  023%=      5-min Rain = 0
KHA2 212145Z 14007KT 27/05 A3016 RMK A01 T02730045  RH  023%=      5-min Rain = 0
KHA2 212146Z 15010KT 27/05 A3016 RMK A01 T02700045  RH  024%=      5-min Rain = 0
KHA2 212147Z 13011KT 27/04 A3015 RMK A01 T02700044  RH  023%=      5-min Rain = 0
KHA2 212148Z 13012KT 27/04 A3015 RMK A01 T02700043  RH  023%=      5-min Rain = 0
KHA2 212149Z 14011KT 27/05 A3015 RMK A01 T02700045  RH  024%=      5-min Rain = 0
KHA2 212150Z 15008KT 27/05 A3015 RMK A01 T02690046  RH  024%=      5-min Rain = 0
KHA2 212151Z 16008KT 27/05 A3015 RMK A01 T02680045  RH  024%=      5-min Rain = 0
KHA2 212152Z 15009KT 27/04 A3015 RMK A01 T02670044  RH  024%=      5-min Rain = 0
KHA2 212153Z 13008KT 27/04 A3015 RMK A01 T02680042  RH  023%=      5-min Rain = 0
KHA2 212154Z 13006KT 27/04 A3015 RMK A01 T02680041  RH  023%=      5-min Rain = 0
KHA2 212155Z 13006KT 27/04 A3015 RMK A01 T02670043  RH  024%=      5-min Rain = 0
KHA2 212156Z 15010KT 27/05 A3015 RMK A01 T02690045  RH  024%=      5-min Rain = 0
KHA2 212157Z 14011KT 27/05 A3015 RMK A01 T02710045  RH  023%=      5-min Rain = 0
KHA2 212158Z 13010KT 27/04 A3015 RMK A01 T02710041  RH  023%=      5-min Rain = 0
KHA2 212159Z 12010KT 27/04 A3015 RMK A01 T02710040  RH  023%=      5-min Rain = 0
KHA2 212200Z 12010KT 27/04 A3015 RMK A01 T02700039  RH  023%=      5-min Rain = 0
KHA2 212201Z 12011KT 27/04 A3015 RMK A01 T02700040  RH  023%=      5-min Rain = 0
KHA2 212202Z 12009KT 27/04 A3015 RMK A01 T02720039  RH  022%=      5-min Rain = 0
KHA2 212203Z 13008KT 27/04 A3015 RMK A01 T02720038  RH  022%=      5-min Rain = 0
KHA2 212204Z 15010KT 27/04 A3015 RMK A01 T02740040  RH  022%=      5-min Rain = 0
KHA2 212205Z 17007KT 28/04 A3015 RMK A01 T02760040  RH  022%=      5-min Rain = 0
KHA2 212206Z 15009KT 28/04 A3015 RMK A01 T02760040  RH  022%=      5-min Rain = 0
KHA2 212207Z 14010KT 28/04 A3015 RMK A01 T02750038  RH  022%=      5-min Rain = 0
KHA2 212208Z 15010KT 27/04 A3015 RMK A01 T02720036  RH  022%=      5-min Rain = 0
KHA2 212209Z 14008KT 27/04 A3015 RMK A01 T02710037  RH  022%=      5-min Rain = 0
KHA2 212210Z 14007KT 27/04 A3015 RMK A01 T02700036  RH  022%=      5-min Rain = 0
KHA2 212211Z 14009KT 27/04 A3015 RMK A01 T02700035  RH  022%=      5-min Rain = 0
KHA2 212212Z 14007KT 27/03 A3015 RMK A01 T02710032  RH  022%=      5-min Rain = 0
KHA2 212213Z 16006KT 27/04 A3015 RMK A01 T02730035  RH  022%=      5-min Rain = 0
KHA2 212214Z 16009KT 27/04 A3015 RMK A01 T02730036  RH  022%=      5-min Rain = 0
KHA2 212215Z 15011KT 27/04 A3015 RMK A01 T02720040  RH  023%=      5-min Rain = 0
KHA2 212216Z 14009KT 27/04 A3015 RMK A01 T02710041  RH  023%=      5-min Rain = 0
KHA2 212217Z 14010KT 27/04 A3015 RMK A01 T02720041  RH  023%=      5-min Rain = 0
KHA2 212218Z 15007KT 27/04 A3015 RMK A01 T02710039  RH  023%=      5-min Rain = 0
KHA2 212219Z 16006KT 27/04 A3015 RMK A01 T02690039  RH  023%=      5-min Rain = 0
KHA2 212220Z 15008KT 27/04 A3015 RMK A01 T02680040  RH  023%=      5-min Rain = 0
KHA2 212221Z 15009KT 27/04 A3015 RMK A01 T02680040  RH  023%=      5-min Rain = 0
KHA2 212222Z 15010KT 27/04 A3015 RMK A01 T02700040  RH  023%=      5-min Rain = 0
KHA2 212223Z 15009KT 27/04 A3015 RMK A01 T02710039  RH  022%=      5-min Rain = 0
KHA2 212224Z 16010KT 27/04 A3015 RMK A01 T02710038  RH  022%=      5-min Rain = 0
KHA2 212225Z 16007KT 27/04 A3015 RMK A01 T02700036  RH  022%=      5-min Rain = 0
KHA2 212226Z 17010KT 27/04 A3015 RMK A01 T02690039  RH  023%=      5-min Rain = 0
KHA2 212227Z 16008KT 27/04 A3015 RMK A01 T02690037  RH  022%=      5-min Rain = 0
KHA2 212228Z 15010KT 27/04 A3015 RMK A01 T02690037  RH  022%=      5-min Rain = 0
KHA2 212229Z 15013KT 27/03 A3015 RMK A01 T02690033  RH  022%=      5-min Rain = 0
KHA2 212230Z 15011KT 27/03 A3015 RMK A01 T02700031  RH  021%=      5-min Rain = 0
KHA2 212231Z 15009KT 27/03 A3015 RMK A01 T02690030  RH  021%=      5-min Rain = 0
KHA2 212232Z 16012KT 27/03 A3015 RMK A01 T02680029  RH  021%=      5-min Rain = 0
KHA2 212233Z 16013KT 27/03 A3015 RMK A01 T02680029  RH  021%=      5-min Rain = 0
KHA2 212234Z 16010KT 27/03 A3015 RMK A01 T02670027  RH  021%=      5-min Rain = 0
KHA2 212235Z 13009KT 27/03 A3015 RMK A01 T02660029  RH  021%=      5-min Rain = 0
KHA2 212236Z 16009KT 27/03 A3015 RMK A01 T02670027  RH  021%=      5-min Rain = 0
KHA2 212237Z 15008KT 27/03 A3015 RMK A01 T02680026  RH  021%=      5-min Rain = 0
KHA2 212238Z 15008KT 27/03 A3015 RMK A01 T02670027  RH  021%=      5-min Rain = 0
KHA2 212239Z 13008KT 27/03 A3015 RMK A01 T02670027  RH  021%=      5-min Rain = 0
KHA2 212240Z 13010KT 27/03 A3015 RMK A01 T02670027  RH  021%=      5-min Rain = 0
KHA2 212241Z 16009KT 27/03 A3015 RMK A01 T02670031  RH  022%=      5-min Rain = 0
KHA2 212242Z 16007KT 27/03 A3015 RMK A01 T02680029  RH  021%=      5-min Rain = 0
KHA2 212243Z 15007KT 27/03 A3015 RMK A01 T02680027  RH  021%=      5-min Rain = 0
KHA2 212244Z 16011KT 27/03 A3015 RMK A01 T02670029  RH  022%=      5-min Rain = 0
KHA2 212245Z 16010KT 27/04 A3015 RMK A01 T02680036  RH  022%=      5-min Rain = 0
KHA2 212246Z 16007KT 27/04 A3015 RMK A01 T02680036  RH  022%=      5-min Rain = 0
KHA2 212247Z 15007KT 27/04 A3015 RMK A01 T02690037  RH  022%=      5-min Rain = 0
KHA2 212248Z 15006KT 27/04 A3015 RMK A01 T02680036  RH  022%=      5-min Rain = 0
KHA2 212249Z 16008KT 27/04 A3015 RMK A01 T02670036  RH  023%=      5-min Rain = 0
KHA2 212250Z 16009KT 27/04 A3015 RMK A01 T02670038  RH  023%=      5-min Rain = 0
KHA2 212251Z 17011KT 27/04 A3015 RMK A01 T02670038  RH  023%=      5-min Rain = 0
KHA2 212252Z 18009KT 27/04 A3015 RMK A01 T02670038  RH  023%=      5-min Rain = 0
KHA2 212253Z 18012KT 27/04 A3015 RMK A01 T02660039  RH  023%=      5-min Rain = 0
KHA2 212254Z 16011KT 27/04 A3015 RMK A01 T02670039  RH  023%=      5-min Rain = 0
KHA2 212255Z 17011KT 27/04 A3015 RMK A01 T02680039  RH  023%=      5-min Rain = 0
KHA2 212256Z 15009KT 27/04 A3015 RMK A01 T02680039  RH  023%=      5-min Rain = 0
KHA2 212257Z 15008KT 27/04 A3015 RMK A01 T02680039  RH  023%=      5-min Rain = 0
KHA2 212258Z 16007KT 27/04 A3015 RMK A01 T02680038  RH  023%=      5-min Rain = 0
KHA2 212259Z 16006KT 27/04 A3015 RMK A01 T02670038  RH  023%=      5-min Rain = 0
KHA2 212300Z 16005KT 27/04 A3015 RMK A01 T02660037  RH  023%=      5-min Rain = 0
KHA2 212301Z 14006KT 27/04 A3015 RMK A01 T02660038  RH  023%=      5-min Rain = 0
KHA2 212302Z 15009KT 27/04 A3015 RMK A01 T02660038  RH  023%=      5-min Rain = 0
KHA2 212303Z 15009KT 27/04 A3015 RMK A01 T02670037  RH  023%=      5-min Rain = 0
KHA2 212304Z 16008KT 27/04 A3015 RMK A01 T02660036  RH  023%=      5-min Rain = 0
KHA2 212305Z 16008KT 27/04 A3015 RMK A01 T02660036  RH  023%=      5-min Rain = 0
KHA2 212306Z 17009KT 27/04 A3015 RMK A01 T02670037  RH  023%=      5-min Rain = 0
KHA2 212307Z 16009KT 27/04 A3015 RMK A01 T02660035  RH  022%=      5-min Rain = 0
KHA2 212308Z 17008KT 27/04 A3015 RMK A01 T02660035  RH  022%=      5-min Rain = 0
KHA2 212309Z 16010KT 27/03 A3015 RMK A01 T02660034  RH  022%=      5-min Rain = 0
KHA2 212310Z 16011KT 27/03 A3015 RMK A01 T02660033  RH  022%=      5-min Rain = 0
KHA2 212311Z 16010KT 27/03 A3015 RMK A01 T02660032  RH  022%=      5-min Rain = 0
KHA2 212312Z 16008KT 27/03 A3015 RMK A01 T02660031  RH  022%=      5-min Rain = 0
KHA2 212313Z 15010KT 27/03 A3015 RMK A01 T02660033  RH  022%=      5-min Rain = 0
KHA2 212314Z 16010KT 27/03 A3015 RMK A01 T02660033  RH  022%=      5-min Rain = 0
KHA2 212315Z 17008KT 27/03 A3015 RMK A01 T02650031  RH  022%=      5-min Rain = 0
KHA2 212316Z 18008KT 26/03 A3015 RMK A01 T02640031  RH  022%=      5-min Rain = 0
KHA2 212317Z 17010KT 26/03 A3015 RMK A01 T02640031  RH  022%=      5-min Rain = 0
KHA2 212318Z 16009KT 26/03 A3015 RMK A01 T02640030  RH  022%=      5-min Rain = 0
KHA2 212319Z 15008KT 26/03 A3015 RMK A01 T02640029  RH  022%=      5-min Rain = 0
KHA2 212320Z 15006KT 26/03 A3015 RMK A01 T02630027  RH  022%=      5-min Rain = 0
KHA2 212321Z 15006KT 26/03 A3015 RMK A01 T02630028  RH  022%=      5-min Rain = 0
KHA2 212322Z 15005KT 26/03 A3015 RMK A01 T02630028  RH  022%=      5-min Rain = 0
KHA2 212323Z 15009KT 26/03 A3015 RMK A01 T02630028  RH  022%=      5-min Rain = 0
KHA2 212324Z 16009KT 26/03 A3015 RMK A01 T02640027  RH  022%=      5-min Rain = 0
KHA2 212325Z 16009KT 26/03 A3015 RMK A01 T02640028  RH  022%=      5-min Rain = 0
KHA2 212326Z 17009KT 26/03 A3015 RMK A01 T02640030  RH  022%=      5-min Rain = 0
KHA2 212327Z 16008KT 26/03 A3015 RMK A01 T02630031  RH  022%=      5-min Rain = 0
KHA2 212328Z 15006KT 26/03 A3015 RMK A01 T02620032  RH  023%=      5-min Rain = 0
KHA2 212329Z 15007KT 26/03 A3015 RMK A01 T02620031  RH  022%=      5-min Rain = 0
KHA2 212330Z 14009KT 26/03 A3015 RMK A01 T02630029  RH  022%=      5-min Rain = 0
KHA2 212331Z 14009KT 26/03 A3015 RMK A01 T02640027  RH  022%=      5-min Rain = 0
KHA2 212332Z 14009KT 26/03 A3015 RMK A01 T02640026  RH  021%=      5-min Rain = 0
KHA2 212333Z 14008KT 26/03 A3015 RMK A01 T02630026  RH  022%=      5-min Rain = 0
KHA2 212334Z 14008KT 26/03 A3015 RMK A01 T02630027  RH  022%=      5-min Rain = 0
KHA2 212335Z 15009KT 26/03 A3015 RMK A01 T02620027  RH  022%=      5-min Rain = 0
KHA2 212336Z 15009KT 26/03 A3015 RMK A01 T02620027  RH  022%=      5-min Rain = 0
KHA2 212337Z 15008KT 26/03 A3015 RMK A01 T02620026  RH  022%=      5-min Rain = 0
KHA2 212338Z 15009KT 26/03 A3015 RMK A01 T02620026  RH  022%=      5-min Rain = 0
KHA2 212339Z 16008KT 26/03 A3015 RMK A01 T02610025  RH  022%=      5-min Rain = 0
KHA2 212340Z 15006KT 26/02 A3015 RMK A01 T02610024  RH  021%=      5-min Rain = 0
KHA2 212341Z 15007KT 26/02 A3015 RMK A01 T02610024  RH  021%=      5-min Rain = 0
KHA2 212342Z 15007KT 26/02 A3015 RMK A01 T02600022  RH  021%=      5-min Rain = 0
KHA2 212343Z 16007KT 26/02 A3015 RMK A01 T02600022  RH  021%=      5-min Rain = 0
KHA2 212344Z 16007KT 26/02 A3015 RMK A01 T02600023  RH  021%=      5-min Rain = 0
KHA2 212345Z 15007KT 26/02 A3015 RMK A01 T02590023  RH  022%=      5-min Rain = 0
KHA2 212346Z 15008KT 26/02 A3015 RMK A01 T02590024  RH  022%=      5-min Rain = 0
KHA2 212347Z 14010KT 26/03 A3015 RMK A01 T02590025  RH  022%=      5-min Rain = 0
KHA2 212348Z 15010KT 26/02 A3015 RMK A01 T02590024  RH  022%=      5-min Rain = 0
KHA2 212349Z 14009KT 26/03 A3015 RMK A01 T02580026  RH  022%=      5-min Rain = 0
KHA2 212350Z 15010KT 26/03 A3015 RMK A01 T02580026  RH  022%=      5-min Rain = 0
KHA2 212351Z 15010KT 26/03 A3015 RMK A01 T02570027  RH  022%=      5-min Rain = 0
KHA2 212352Z 15009KT 26/03 A3015 RMK A01 T02570027  RH  023%=      5-min Rain = 0
KHA2 212353Z 15009KT 26/03 A3015 RMK A01 T02560027  RH  023%=      5-min Rain = 0
KHA2 212354Z 15008KT 26/03 A3016 RMK A01 T02560028  RH  023%=      5-min Rain = 0
KHA2 212355Z 15009KT 26/03 A3016 RMK A01 T02560027  RH  023%=      5-min Rain = 0
KHA2 212356Z 15009KT 26/03 A3016 RMK A01 T02560025  RH  022%=      5-min Rain = 0
KHA2 212357Z 15009KT 26/03 A3016 RMK A01 T02550025  RH  022%=      5-min Rain = 0
KHA2 212358Z 15009KT 26/02 A3016 RMK A01 T02550024  RH  022%=      5-min Rain = 0
KHA2 212359Z 15008KT 25/02 A3016 RMK A01 T02540023  RH  022%=      5-min Rain = 0
KHA2 220000Z 15008KT 25/02 A3016 RMK A01 T02540023  RH  022%=      5-min Rain = 0
KHA2 220001Z 16008KT 25/02 A3016 RMK A01 T02530023  RH  022%=      5-min Rain = 0
KHA2 220002Z 16008KT 25/02 A3016 RMK A01 T02520022  RH  022%=      5-min Rain = 0
KHA2 220003Z 16008KT 25/02 A3016 RMK A01 T02510022  RH  022%=      5-min Rain = 0
KHA2 220004Z 15008KT 25/02 A3016 RMK A01 T02510021  RH  022%=      5-min Rain = 0
KHA2 220005Z 15007KT 25/02 A3016 RMK A01 T02510021  RH  022%=      5-min Rain = 0
KHA2 220006Z 15007KT 25/02 A3016 RMK A01 T02500022  RH  023%=      5-min Rain = 0
KHA2 220007Z 15007KT 25/02 A3016 RMK A01 T02490021  RH  023%=      5-min Rain = 0
KHA2 220008Z 15007KT 25/02 A3016 RMK A01 T02480021  RH  023%=      5-min Rain = 0
KHA2 220009Z 15007KT 25/02 A3016 RMK A01 T02470021  RH  023%=      5-min Rain = 0
KHA2 220010Z 15007KT 25/02 A3016 RMK A01 T02460021  RH  023%=      5-min Rain = 0
KHA2 220011Z 15007KT 25/02 A3016 RMK A01 T02450021  RH  023%=      5-min Rain = 0
KHA2 220012Z 15007KT 25/02 A3016 RMK A01 T02450020  RH  023%=      5-min Rain = 0
KHA2 220013Z 15007KT 24/02 A3016 RMK A01 T02440020  RH  023%=      5-min Rain = 0
KHA2 220014Z 15007KT 24/02 A3016 RMK A01 T02430019  RH  023%=      5-min Rain = 0
KHA2 220015Z 15007KT 24/02 A3016 RMK A01 T02420019  RH  023%=      5-min Rain = 0
KHA2 220016Z 15008KT 24/02 A3016 RMK A01 T02410018  RH  023%=      5-min Rain = 0
KHA2 220017Z 15008KT 24/02 A3016 RMK A01 T02400018  RH  023%=      5-min Rain = 0
KHA2 220018Z 14008KT 24/02 A3016 RMK A01 T02390019  RH  024%=      5-min Rain = 0
KHA2 220019Z 14010KT 24/02 A3016 RMK A01 T02390023  RH  024%=      5-min Rain = 0
KHA2 220020Z 14009KT 24/03 A3016 RMK A01 T02390030  RH  026%=      5-min Rain = 0
KHA2 220021Z 14009KT 24/03 A3016 RMK A01 T02390032  RH  026%=      5-min Rain = 0
KHA2 220022Z 14008KT 24/03 A3016 RMK A01 T02390034  RH  026%=      5-min Rain = 0
KHA2 220023Z 13008KT 24/04 A3016 RMK A01 T02380036  RH  027%=      5-min Rain = 0
KHA2 220024Z 13008KT 24/04 A3016 RMK A01 T02360037  RH  027%=      5-min Rain = 0
KHA2 220025Z 13009KT 24/04 A3016 RMK A01 T02350039  RH  028%=      5-min Rain = 0
KHA2 220026Z 13008KT 23/04 A3016 RMK A01 T02340040  RH  028%=      5-min Rain = 0
KHA2 220027Z 13009KT 23/04 A3016 RMK A01 T02330040  RH  028%=      5-min Rain = 0
KHA2 220028Z 12009KT 23/04 A3016 RMK A01 T02330040  RH  029%=      5-min Rain = 0
KHA2 220029Z 12010KT 23/04 A3016 RMK A01 T02330041  RH  029%=      5-min Rain = 0
KHA2 220030Z 13009KT 23/04 A3016 RMK A01 T02330041  RH  029%=      5-min Rain = 0
KHA2 220031Z 13009KT 23/04 A3016 RMK A01 T02330041  RH  029%=      5-min Rain = 0
KHA2 220032Z 13010KT 23/04 A3016 RMK A01 T02320041  RH  029%=      5-min Rain = 0
KHA2 220033Z 12009KT 23/04 A3016 RMK A01 T02310041  RH  029%=      5-min Rain = 0
KHA2 220034Z 13009KT 23/04 A3016 RMK A01 T02310041  RH  029%=      5-min Rain = 0
KHA2 220035Z 13009KT 23/04 A3016 RMK A01 T02300041  RH  029%=      5-min Rain = 0
KHA2 220036Z 13009KT 23/04 A3016 RMK A01 T02290041  RH  029%=      5-min Rain = 0
KHA2 220037Z 12009KT 23/04 A3016 RMK A01 T02290042  RH  030%=      5-min Rain = 0
KHA2 220038Z 12009KT 23/04 A3016 RMK A01 T02280041  RH  030%=      5-min Rain = 0
KHA2 220039Z 13009KT 23/04 A3016 RMK A01 T02270041  RH  030%=      5-min Rain = 0
KHA2 220040Z 12009KT 23/04 A3016 RMK A01 T02250041  RH  030%=      5-min Rain = 0
KHA2 220041Z 12009KT 22/04 A3016 RMK A01 T02240042  RH  030%=      5-min Rain = 0
KHA2 220042Z 13009KT 22/04 A3016 RMK A01 T02240042  RH  030%=      5-min Rain = 0
KHA2 220043Z 13009KT 22/04 A3016 RMK A01 T02230042  RH  031%=      5-min Rain = 0
KHA2 220044Z 13009KT 22/04 A3016 RMK A01 T02220043  RH  031%=      5-min Rain = 0
KHA2 220045Z 13009KT 22/04 A3016 RMK A01 T02210042  RH  031%=      5-min Rain = 0
KHA2 220046Z 13009KT 22/04 A3016 RMK A01 T02190042  RH  031%=      5-min Rain = 0
KHA2 220047Z 13009KT 22/04 A3016 RMK A01 T02190043  RH  032%=      5-min Rain = 0
KHA2 220048Z 12009KT 22/04 A3016 RMK A01 T02170043  RH  032%=      5-min Rain = 0
KHA2 220049Z 13009KT 22/04 A3016 RMK A01 T02170043  RH  032%=      5-min Rain = 0
KHA2 220050Z 12009KT 22/04 A3016 RMK A01 T02160043  RH  032%=      5-min Rain = 0
KHA2 220051Z 12009KT 22/04 A3016 RMK A01 T02150044  RH  033%=      5-min Rain = 0
KHA2 220052Z 12009KT 21/04 A3016 RMK A01 T02140044  RH  033%=      5-min Rain = 0
KHA2 220053Z 12010KT 21/05 A3016 RMK A01 T02130045  RH  033%=      5-min Rain = 0
KHA2 220054Z 12009KT 21/05 A3017 RMK A01 T02130045  RH  033%=      5-min Rain = 0
KHA2 220055Z 12009KT 21/05 A3017 RMK A01 T02130046  RH  033%=      5-min Rain = 0
KHA2 220056Z 12009KT 21/05 A3017 RMK A01 T02120045  RH  033%=      5-min Rain = 0
KHA2 220057Z 12009KT 21/05 A3017 RMK A01 T02110045  RH  034%=      5-min Rain = 0
KHA2 220058Z 12009KT 21/05 A3017 RMK A01 T02100046  RH  034%=      5-min Rain = 0
KHA2 220059Z 12009KT 21/05 A3017 RMK A01 T02090046  RH  034%=      5-min Rain = 0
KHA2 220100Z 12009KT 21/05 A3017 RMK A01 T02090046  RH  034%=      5-min Rain = 0
KHA2 220101Z 12008KT 21/05 A3017 RMK A01 T02080045  RH  034%=      5-min Rain = 0
KHA2 220102Z 12008KT 21/05 A3017 RMK A01 T02080045  RH  034%=      5-min Rain = 0
KHA2 220103Z 12008KT 21/05 A3017 RMK A01 T02070045  RH  035%=      5-min Rain = 0
KHA2 220104Z 12008KT 21/05 A3017 RMK A01 T02060045  RH  035%=      5-min Rain = 0
KHA2 220105Z 12008KT 20/04 A3017 RMK A01 T02040044  RH  035%=      5-min Rain = 0
KHA2 220106Z 12008KT 20/04 A3017 RMK A01 T02030044  RH  035%=      5-min Rain = 0
KHA2 220107Z 11008KT 20/04 A3017 RMK A01 T02020044  RH  035%=      5-min Rain = 0
KHA2 220108Z 11008KT 20/04 A3017 RMK A01 T02010044  RH  036%=      5-min Rain = 0
KHA2 220109Z 11008KT 20/05 A3017 RMK A01 T02000045  RH  036%=      5-min Rain = 0
KHA2 220110Z 11008KT 20/05 A3017 RMK A01 T02000045  RH  036%=      5-min Rain = 0
KHA2 220111Z 11008KT 20/05 A3017 RMK A01 T02000045  RH  036%=      5-min Rain = 0
KHA2 220112Z 11008KT 20/04 A3017 RMK A01 T01990044  RH  036%=      5-min Rain = 0
KHA2 220113Z 12008KT 20/04 A3017 RMK A01 T01980043  RH  036%=      5-min Rain = 0
KHA2 220114Z 11008KT 20/04 A3017 RMK A01 T01960043  RH  036%=      5-min Rain = 0
KHA2 220115Z 11008KT 19/04 A3017 RMK A01 T01940043  RH  037%=      5-min Rain = 0
KHA2 220116Z 11009KT 19/04 A3017 RMK A01 T01930044  RH  037%=      5-min Rain = 0
KHA2 220117Z 11009KT 19/04 A3017 RMK A01 T01930044  RH  037%=      5-min Rain = 0
KHA2 220118Z 12009KT 19/04 A3017 RMK A01 T01930044  RH  037%=      5-min Rain = 0
KHA2 220119Z 12009KT 19/05 A3017 RMK A01 T01930045  RH  038%=      5-min Rain = 0
KHA2 220120Z 12009KT 19/05 A3017 RMK A01 T01940046  RH  038%=      5-min Rain = 0
KHA2 220121Z 12009KT 19/05 A3017 RMK A01 T01940047  RH  038%=      5-min Rain = 0
KHA2 220122Z 12009KT 20/05 A3017 RMK A01 T01950047  RH  038%=      5-min Rain = 0
KHA2 220123Z 11008KT 20/05 A3017 RMK A01 T01950048  RH  038%=      5-min Rain = 0
KHA2 220124Z 11008KT 20/05 A3017 RMK A01 T01950048  RH  038%=      5-min Rain = 0
KHA2 220125Z 11008KT 19/05 A3017 RMK A01 T01940048  RH  038%=      5-min Rain = 0
KHA2 220126Z 11008KT 19/05 A3017 RMK A01 T01940047  RH  038%=      5-min Rain = 0
KHA2 220127Z 11008KT 19/05 A3017 RMK A01 T01930047  RH  038%=      5-min Rain = 0
KHA2 220128Z 11008KT 19/05 A3017 RMK A01 T01920047  RH  038%=      5-min Rain = 0
KHA2 220129Z 11008KT 19/05 A3018 RMK A01 T01920047  RH  038%=      5-min Rain = 0
KHA2 220130Z 11008KT 19/05 A3018 RMK A01 T01910047  RH  038%=      5-min Rain = 0
KHA2 220131Z 10007KT 19/05 A3018 RMK A01 T01910048  RH  039%=      5-min Rain = 0
KHA2 220132Z 09007KT 19/05 A3018 RMK A01 T01900047  RH  039%=      5-min Rain = 0
KHA2 220133Z 08006KT 19/04 A3018 RMK A01 T01890044  RH  038%=      5-min Rain = 0
KHA2 220134Z 09007KT 19/04 A3018 RMK A01 T01870041  RH  038%=      5-min Rain = 0
KHA2 220135Z 10008KT 18/04 A3018 RMK A01 T01840042  RH  039%=      5-min Rain = 0
KHA2 220136Z 10008KT 18/04 A3018 RMK A01 T01840043  RH  039%=      5-min Rain = 0
KHA2 220137Z 10008KT 18/04 A3018 RMK A01 T01830044  RH  040%=      5-min Rain = 0
KHA2 220138Z 10009KT 18/04 A3018 RMK A01 T01840044  RH  040%=      5-min Rain = 0
KHA2 220139Z 10009KT 18/05 A3018 RMK A01 T01840045  RH  040%=      5-min Rain = 0
KHA2 220140Z 10008KT 18/05 A3018 RMK A01 T01840045  RH  040%=      5-min Rain = 0
KHA2 220141Z 10009KT 18/05 A3018 RMK A01 T01830047  RH  040%=      5-min Rain = 0
KHA2 220142Z 10009KT 18/05 A3018 RMK A01 T01830048  RH  041%=      5-min Rain = 0
KHA2 220143Z 10008KT 18/05 A3018 RMK A01 T01830049  RH  041%=      5-min Rain = 0
KHA2 220144Z 10008KT 18/05 A3018 RMK A01 T01820050  RH  042%=      5-min Rain = 0
KHA2 220145Z 10008KT 18/05 A3018 RMK A01 T01820051  RH  042%=      5-min Rain = 0
KHA2 220146Z 11008KT 18/05 A3018 RMK A01 T01820051  RH  042%=      5-min Rain = 0
KHA2 220147Z 10008KT 18/05 A3018 RMK A01 T01810051  RH  042%=      5-min Rain = 0
KHA2 220148Z 11008KT 18/05 A3018 RMK A01 T01810052  RH  043%=      5-min Rain = 0
KHA2 220149Z 11008KT 18/05 A3018 RMK A01 T01800053  RH  043%=      5-min Rain = 0
KHA2 220150Z 11008KT 18/05 A3018 RMK A01 T01800054  RH  043%=      5-min Rain = 0
KHA2 220151Z 11008KT 18/06 A3018 RMK A01 T01800055  RH  044%=      5-min Rain = 0
KHA2 220152Z 11009KT 18/06 A3018 RMK A01 T01790057  RH  045%=      5-min Rain = 0
KHA2 220153Z 11008KT 18/06 A3018 RMK A01 T01790058  RH  045%=      5-min Rain = 0
KHA2 220154Z 11009KT 18/06 A3019 RMK A01 T01790060  RH  046%=      5-min Rain = 0
KHA2 220155Z 11009KT 18/06 A3019 RMK A01 T01790061  RH  046%=      5-min Rain = 0
KHA2 220156Z 11009KT 18/06 A3019 RMK A01 T01790062  RH  046%=      5-min Rain = 0
KHA2 220157Z 11008KT 18/06 A3019 RMK A01 T01780062  RH  046%=      5-min Rain = 0
KHA2 220158Z 11008KT 18/06 A3019 RMK A01 T01780062  RH  047%=      5-min Rain = 0
KHA2 220159Z 11008KT 18/06 A3019 RMK A01 T01770062  RH  047%=      5-min Rain = 0
KHA2 220200Z 11008KT 18/06 A3019 RMK A01 T01770063  RH  047%=      5-min Rain = 0
KHA2 220201Z 11008KT 18/06 A3019 RMK A01 T01760064  RH  048%=      5-min Rain = 0
KHA2 220202Z 10008KT 18/07 A3019 RMK A01 T01760065  RH  048%=      5-min Rain = 0
KHA2 220203Z 10007KT 18/07 A3019 RMK A01 T01750065  RH  048%=      5-min Rain = 0
KHA2 220204Z 10007KT 18/07 A3019 RMK A01 T01750065  RH  049%=      5-min Rain = 0
KHA2 220205Z 10007KT 18/07 A3019 RMK A01 T01750066  RH  049%=      5-min Rain = 0
KHA2 220206Z 10007KT 17/06 A3019 RMK A01 T01740064  RH  049%=      5-min Rain = 0
KHA2 220207Z 10007KT 17/06 A3019 RMK A01 T01740063  RH  048%=      5-min Rain = 0
KHA2 220208Z 10007KT 17/06 A3019 RMK A01 T01730062  RH  048%=      5-min Rain = 0
KHA2 220209Z 10007KT 17/06 A3019 RMK A01 T01720061  RH  048%=      5-min Rain = 0
KHA2 220210Z 10007KT 17/06 A3019 RMK A01 T01720061  RH  048%=      5-min Rain = 0
KHA2 220211Z 10007KT 17/06 A3019 RMK A01 T01720061  RH  048%=      5-min Rain = 0
KHA2 220212Z 10008KT 17/06 A3019 RMK A01 T01710060  RH  048%=      5-min Rain = 0
KHA2 220213Z 10008KT 17/06 A3019 RMK A01 T01710060  RH  048%=      5-min Rain = 0
KHA2 220214Z 10008KT 17/06 A3019 RMK A01 T01700061  RH  048%=      5-min Rain = 0
KHA2 220215Z 11008KT 17/06 A3019 RMK A01 T01700062  RH  049%=      5-min Rain = 0
KHA2 220216Z 11008KT 17/06 A3019 RMK A01 T01700062  RH  049%=      5-min Rain = 0
KHA2 220217Z 11008KT 17/06 A302 RMK A01 T01690062  RH  049%=      5-min Rain = 0
KHA2 220218Z 11008KT 17/06 A302 RMK A01 T01680063  RH  050%=      5-min Rain = 0
KHA2 220219Z 11008KT 17/07 A302 RMK A01 T01680065  RH  051%=      5-min Rain = 0
KHA2 220220Z 11008KT 17/07 A302 RMK A01 T01680066  RH  051%=      5-min Rain = 0
KHA2 220221Z 11008KT 17/07 A302 RMK A01 T01680066  RH  051%=      5-min Rain = 0
KHA2 220222Z 11008KT 17/07 A302 RMK A01 T01680066  RH  051%=      5-min Rain = 0
KHA2 220223Z 11008KT 17/07 A302 RMK A01 T01670066  RH  051%=      5-min Rain = 0
KHA2 220224Z 11008KT 17/07 A302 RMK A01 T01670066  RH  052%=      5-min Rain = 0
KHA2 220225Z 11007KT 17/07 A302 RMK A01 T01660067  RH  052%=      5-min Rain = 0
KHA2 220226Z 11007KT 17/07 A302 RMK A01 T01650066  RH  052%=      5-min Rain = 0
KHA2 220227Z 11007KT 16/07 A302 RMK A01 T01640066  RH  052%=      5-min Rain = 0
KHA2 220228Z 11007KT 16/07 A302 RMK A01 T01640067  RH  053%=      5-min Rain = 0
KHA2 220229Z 11007KT 16/07 A302 RMK A01 T01630068  RH  053%=      5-min Rain = 0
KHA2 220230Z 11008KT 16/07 A302 RMK A01 T01620068  RH  054%=      5-min Rain = 0
KHA2 220231Z 11008KT 16/07 A302 RMK A01 T01620069  RH  054%=      5-min Rain = 0
KHA2 220232Z 11008KT 16/07 A3021 RMK A01 T01610069  RH  054%=      5-min Rain = 0
KHA2 220233Z 11008KT 16/07 A3021 RMK A01 T01610069  RH  054%=      5-min Rain = 0
KHA2 220234Z 11008KT 16/07 A3021 RMK A01 T01610071  RH  055%=      5-min Rain = 0
KHA2 220235Z 11008KT 16/07 A3021 RMK A01 T01610072  RH  055%=      5-min Rain = 0
KHA2 220236Z 11008KT 16/07 A3021 RMK A01 T01610072  RH  056%=      5-min Rain = 0
KHA2 220237Z 11008KT 16/07 A3021 RMK A01 T01610073  RH  056%=      5-min Rain = 0
KHA2 220238Z 11008KT 16/07 A3021 RMK A01 T01610073  RH  056%=      5-min Rain = 0
KHA2 220239Z 11008KT 16/07 A3021 RMK A01 T01610074  RH  056%=      5-min Rain = 0
KHA2 220240Z 11008KT 16/08 A3021 RMK A01 T01610075  RH  057%=      5-min Rain = 0
KHA2 220241Z 11008KT 16/08 A3021 RMK A01 T01610077  RH  057%=      5-min Rain = 0
KHA2 220242Z 11008KT 16/08 A3021 RMK A01 T01620077  RH  057%=      5-min Rain = 0
KHA2 220243Z 11008KT 16/08 A3021 RMK A01 T01620077  RH  057%=      5-min Rain = 0
KHA2 220244Z 11008KT 16/08 A3021 RMK A01 T01620077  RH  057%=      5-min Rain = 0
KHA2 220245Z 11008KT 16/08 A3021 RMK A01 T01620078  RH  058%=      5-min Rain = 0
KHA2 220246Z 12008KT 16/08 A3021 RMK A01 T01620078  RH  057%=      5-min Rain = 0
KHA2 220247Z 12008KT 16/08 A3021 RMK A01 T01620078  RH  057%=      5-min Rain = 0
KHA2 220248Z 12008KT 16/08 A3021 RMK A01 T01610078  RH  058%=      5-min Rain = 0
KHA2 220249Z 12008KT 16/08 A3021 RMK A01 T01600078  RH  058%=      5-min Rain = 0
KHA2 220250Z 12008KT 16/08 A3021 RMK A01 T01600079  RH  058%=      5-min Rain = 0
KHA2 220251Z 12008KT 16/08 A3021 RMK A01 T01590079  RH  059%=      5-min Rain = 0
KHA2 220252Z 12008KT 16/08 A3021 RMK A01 T01590080  RH  059%=      5-min Rain = 0
KHA2 220253Z 12008KT 16/08 A3021 RMK A01 T01590081  RH  059%=      5-min Rain = 0
KHA2 220254Z 12008KT 16/08 A3021 RMK A01 T01590081  RH  060%=      5-min Rain = 0
KHA2 220255Z 12008KT 16/08 A3021 RMK A01 T01590081  RH  060%=      5-min Rain = 0
KHA2 220256Z 12008KT 16/08 A3021 RMK A01 T01590082  RH  060%=      5-min Rain = 0
KHA2 220257Z 12008KT 16/08 A3021 RMK A01 T01590082  RH  060%=      5-min Rain = 0
KHA2 220258Z 12008KT 16/08 A3021 RMK A01 T01590083  RH  060%=      5-min Rain = 0
KHA2 220259Z 12008KT 16/08 A3021 RMK A01 T01600083  RH  060%=      5-min Rain = 0
KHA2 220300Z 12008KT 16/08 A3021 RMK A01 T01600083  RH  060%=      5-min Rain = 0
KHA2 220301Z 12008KT 16/08 A3021 RMK A01 T01600084  RH  061%=      5-min Rain = 0
KHA2 220302Z 12008KT 16/09 A3021 RMK A01 T01600085  RH  061%=      5-min Rain = 0
KHA2 220303Z 12008KT 16/09 A3021 RMK A01 T01610087  RH  061%=      5-min Rain = 0
KHA2 220304Z 12008KT 16/09 A3021 RMK A01 T01620087  RH  061%=      5-min Rain = 0
KHA2 220305Z 12008KT 16/09 A3021 RMK A01 T01620087  RH  061%=      5-min Rain = 0
KHA2 220306Z 12008KT 16/09 A3021 RMK A01 T01620088  RH  061%=      5-min Rain = 0
KHA2 220307Z 12008KT 16/09 A3021 RMK A01 T01620088  RH  062%=      5-min Rain = 0
KHA2 220308Z 12008KT 16/09 A3021 RMK A01 T01620089  RH  062%=      5-min Rain = 0
KHA2 220309Z 12008KT 16/09 A3022 RMK A01 T01620089  RH  062%=      5-min Rain = 0
KHA2 220310Z 12008KT 16/09 A3022 RMK A01 T01620089  RH  062%=      5-min Rain = 0
KHA2 220311Z 12008KT 16/09 A3022 RMK A01 T01620089  RH  062%=      5-min Rain = 0
KHA2 220312Z 12007KT 16/09 A3022 RMK A01 T01610089  RH  062%=      5-min Rain = 0
KHA2 220313Z 12007KT 16/09 A3022 RMK A01 T01610089  RH  062%=      5-min Rain = 0
KHA2 220314Z 12007KT 16/09 A3022 RMK A01 T01600089  RH  062%=      5-min Rain = 0
KHA2 220315Z 12007KT 16/09 A3022 RMK A01 T01600089  RH  063%=      5-min Rain = 0
KHA2 220316Z 12007KT 16/09 A3022 RMK A01 T01600089  RH  063%=      5-min Rain = 0
KHA2 220317Z 12007KT 16/09 A3022 RMK A01 T01600090  RH  063%=      5-min Rain = 0
KHA2 220318Z 13007KT 16/09 A3022 RMK A01 T01590089  RH  063%=      5-min Rain = 0
KHA2 220319Z 13007KT 16/09 A3022 RMK A01 T01590089  RH  063%=      5-min Rain = 0
KHA2 220320Z 12007KT 16/09 A3022 RMK A01 T01580090  RH  064%=      5-min Rain = 0
KHA2 220321Z 12007KT 16/09 A3022 RMK A01 T01580090  RH  064%=      5-min Rain = 0
KHA2 220322Z 12007KT 16/09 A3022 RMK A01 T01580090  RH  064%=      5-min Rain = 0
KHA2 220323Z 12006KT 16/09 A3022 RMK A01 T01580090  RH  064%=      5-min Rain = 0
KHA2 220324Z 12006KT 16/09 A3022 RMK A01 T01570090  RH  064%=      5-min Rain = 0
KHA2 220325Z 12007KT 16/09 A3022 RMK A01 T01570090  RH  065%=      5-min Rain = 0
KHA2 220326Z 12007KT 16/09 A3022 RMK A01 T01570091  RH  065%=      5-min Rain = 0
KHA2 220327Z 12007KT 16/09 A3022 RMK A01 T01570091  RH  065%=      5-min Rain = 0
KHA2 220328Z 13007KT 16/09 A3022 RMK A01 T01560090  RH  065%=      5-min Rain = 0
KHA2 220329Z 13007KT 16/09 A3022 RMK A01 T01550090  RH  065%=      5-min Rain = 0
KHA2 220330Z 13007KT 16/09 A3022 RMK A01 T01550090  RH  065%=      5-min Rain = 0
KHA2 220331Z 13007KT 15/09 A3022 RMK A01 T01540091  RH  066%=      5-min Rain = 0
KHA2 220332Z 13007KT 15/09 A3022 RMK A01 T01530090  RH  066%=      5-min Rain = 0
KHA2 220333Z 13007KT 15/09 A3022 RMK A01 T01530090  RH  066%=      5-min Rain = 0
KHA2 220334Z 13007KT 15/09 A3022 RMK A01 T01520090  RH  066%=      5-min Rain = 0
KHA2 220335Z 13007KT 15/09 A3022 RMK A01 T01510090  RH  066%=      5-min Rain = 0
KHA2 220336Z 13007KT 15/09 A3022 RMK A01 T01500089  RH  067%=      5-min Rain = 0
KHA2 220337Z 13007KT 15/09 A3022 RMK A01 T01490089  RH  067%=      5-min Rain = 0
KHA2 220338Z 13007KT 15/09 A3022 RMK A01 T01490088  RH  067%=      5-min Rain = 0
KHA2 220339Z 13007KT 15/09 A3022 RMK A01 T01480088  RH  067%=      5-min Rain = 0
KHA2 220340Z 13007KT 15/09 A3022 RMK A01 T01470088  RH  068%=      5-min Rain = 0
KHA2 220341Z 13007KT 15/09 A3022 RMK A01 T01460088  RH  068%=      5-min Rain = 0
KHA2 220342Z 13007KT 15/09 A3022 RMK A01 T01460088  RH  068%=      5-min Rain = 0
KHA2 220343Z 13007KT 15/09 A3022 RMK A01 T01450087  RH  068%=      5-min Rain = 0
KHA2 220344Z 13006KT 14/09 A3022 RMK A01 T01440087  RH  068%=      5-min Rain = 0
KHA2 220345Z 13006KT 14/09 A3022 RMK A01 T01430086  RH  069%=      5-min Rain = 0
KHA2 220346Z 13006KT 14/09 A3023 RMK A01 T01420086  RH  069%=      5-min Rain = 0
KHA2 220347Z 13006KT 14/09 A3023 RMK A01 T01420086  RH  069%=      5-min Rain = 0
KHA2 220348Z 13006KT 14/09 A3023 RMK A01 T01410086  RH  069%=      5-min Rain = 0
KHA2 220349Z 13006KT 14/09 A3023 RMK A01 T01400085  RH  069%=      5-min Rain = 0
KHA2 220350Z 12006KT 14/09 A3023 RMK A01 T01400085  RH  070%=      5-min Rain = 0
KHA2 220351Z 12006KT 14/09 A3023 RMK A01 T01390085  RH  070%=      5-min Rain = 0
KHA2 220352Z 12006KT 14/09 A3023 RMK A01 T01390086  RH  070%=      5-min Rain = 0
KHA2 220353Z 13006KT 14/09 A3023 RMK A01 T01390086  RH  070%=      5-min Rain = 0
KHA2 220354Z 13006KT 14/09 A3023 RMK A01 T01390086  RH  070%=      5-min Rain = 0
KHA2 220355Z 13006KT 14/09 A3023 RMK A01 T01390086  RH  070%=      5-min Rain = 0
KHA2 220356Z 13006KT 14/09 A3023 RMK A01 T01390086  RH  071%=      5-min Rain = 0
KHA2 220357Z 13007KT 14/09 A3023 RMK A01 T01390086  RH  070%=      5-min Rain = 0
KHA2 220358Z 13007KT 14/09 A3023 RMK A01 T01390085  RH  070%=      5-min Rain = 0
KHA2 220359Z 13007KT 14/09 A3022 RMK A01 T01380085  RH  070%=      5-min Rain = 0
KHA2 220400Z 13007KT 14/08 A3023 RMK A01 T01380084  RH  070%=      5-min Rain = 0
KHA2 220401Z 13007KT 14/08 A3023 RMK A01 T01370084  RH  070%=      5-min Rain = 0
KHA2 220402Z 13007KT 14/08 A3023 RMK A01 T01360084  RH  071%=      5-min Rain = 0
KHA2 220403Z 13007KT 14/08 A3023 RMK A01 T01360084  RH  071%=      5-min Rain = 0
KHA2 220404Z 13007KT 14/08 A3023 RMK A01 T01350083  RH  071%=      5-min Rain = 0
KHA2 220405Z 13007KT 13/08 A3023 RMK A01 T01340083  RH  071%=      5-min Rain = 0
KHA2 220406Z 13007KT 13/08 A3022 RMK A01 T01330083  RH  071%=      5-min Rain = 0
KHA2 220407Z 13007KT 13/08 A3023 RMK A01 T01330083  RH  072%=      5-min Rain = 0
KHA2 220408Z 13007KT 13/08 A3023 RMK A01 T01330083  RH  072%=      5-min Rain = 0
KHA2 220409Z 13007KT 13/08 A3023 RMK A01 T01320082  RH  072%=      5-min Rain = 0
KHA2 220410Z 13007KT 13/08 A3022 RMK A01 T01320082  RH  072%=      5-min Rain = 0
KHA2 220411Z 13007KT 13/08 A3022 RMK A01 T01310082  RH  072%=      5-min Rain = 0
KHA2 220412Z 13007KT 13/08 A3022 RMK A01 T01300082  RH  072%=      5-min Rain = 0
KHA2 220413Z 13007KT 13/08 A3022 RMK A01 T01300082  RH  072%=      5-min Rain = 0
KHA2 220414Z 13007KT 13/08 A3022 RMK A01 T01290081  RH  072%=      5-min Rain = 0
KHA2 220415Z 13007KT 13/08 A3022 RMK A01 T01290081  RH  073%=      5-min Rain = 0
KHA2 220416Z 13007KT 13/08 A3022 RMK A01 T01290081  RH  073%=      5-min Rain = 0
KHA2 220417Z 13007KT 13/08 A3022 RMK A01 T01280081  RH  073%=      5-min Rain = 0
KHA2 220418Z 13006KT 13/08 A3022 RMK A01 T01280081  RH  073%=      5-min Rain = 0
KHA2 220419Z 13006KT 13/08 A3022 RMK A01 T01270081  RH  073%=      5-min Rain = 0
KHA2 220420Z 13006KT 13/08 A3022 RMK A01 T01270080  RH  073%=      5-min Rain = 0
KHA2 220421Z 13006KT 13/08 A3022 RMK A01 T01260079  RH  073%=      5-min Rain = 0
KHA2 220422Z 13006KT 13/08 A3022 RMK A01 T01250078  RH  073%=      5-min Rain = 0
KHA2 220423Z 13006KT 12/08 A3022 RMK A01 T01240078  RH  073%=      5-min Rain = 0
KHA2 220424Z 13006KT 12/08 A3022 RMK A01 T01230077  RH  073%=      5-min Rain = 0
KHA2 220425Z 13006KT 12/08 A3022 RMK A01 T01220077  RH  074%=      5-min Rain = 0
KHA2 220426Z 13006KT 12/08 A3022 RMK A01 T01220077  RH  074%=      5-min Rain = 0
KHA2 220427Z 13007KT 12/08 A3022 RMK A01 T01210077  RH  074%=      5-min Rain = 0
KHA2 220428Z 13007KT 12/08 A3022 RMK A01 T01210076  RH  074%=      5-min Rain = 0
KHA2 220429Z 13007KT 12/08 A3022 RMK A01 T01210076  RH  074%=      5-min Rain = 0
KHA2 220430Z 13007KT 12/08 A3022 RMK A01 T01200075  RH  074%=      5-min Rain = 0
KHA2 220431Z 13007KT 12/08 A3022 RMK A01 T01190075  RH  075%=      5-min Rain = 0
KHA2 220432Z 13007KT 12/08 A3022 RMK A01 T01180075  RH  075%=      5-min Rain = 0
KHA2 220433Z 13007KT 12/08 A3022 RMK A01 T01180076  RH  075%=      5-min Rain = 0
KHA2 220434Z 13007KT 12/08 A3022 RMK A01 T01180076  RH  075%=      5-min Rain = 0
KHA2 220435Z 12007KT 12/08 A3022 RMK A01 T01180076  RH  075%=      5-min Rain = 0
KHA2 220436Z 12007KT 12/08 A3022 RMK A01 T01190077  RH  075%=      5-min Rain = 0
KHA2 220437Z 12007KT 12/08 A3022 RMK A01 T01190077  RH  075%=      5-min Rain = 0
KHA2 220438Z 13007KT 12/08 A3022 RMK A01 T01200077  RH  075%=      5-min Rain = 0
KHA2 220439Z 13007KT 12/08 A3022 RMK A01 T01200078  RH  075%=      5-min Rain = 0
KHA2 220440Z 13008KT 12/08 A3022 RMK A01 T01210078  RH  075%=      5-min Rain = 0
KHA2 220441Z 13008KT 12/08 A3022 RMK A01 T01210079  RH  075%=      5-min Rain = 0
KHA2 220442Z 13008KT 12/08 A3022 RMK A01 T01210079  RH  076%=      5-min Rain = 0
KHA2 220443Z 12008KT 12/08 A3022 RMK A01 T01210080  RH  076%=      5-min Rain = 0
KHA2 220444Z 13008KT 12/08 A3022 RMK A01 T01220080  RH  076%=      5-min Rain = 0
KHA2 220445Z 13008KT 12/08 A3022 RMK A01 T01220081  RH  076%=      5-min Rain = 0
KHA2 220446Z 13008KT 12/08 A3022 RMK A01 T01230082  RH  076%=      5-min Rain = 0
KHA2 220447Z 13008KT 12/08 A3022 RMK A01 T01230082  RH  076%=      5-min Rain = 0
KHA2 220448Z 13008KT 12/08 A3021 RMK A01 T01230082  RH  076%=      5-min Rain = 0
KHA2 220449Z 13008KT 12/08 A3021 RMK A01 T01230082  RH  076%=      5-min Rain = 0
KHA2 220450Z 13008KT 12/08 A3021 RMK A01 T01230081  RH  076%=      5-min Rain = 0
KHA2 220451Z 12008KT 12/08 A3021 RMK A01 T01220081  RH  076%=      5-min Rain = 0
KHA2 220452Z 13008KT 12/08 A3021 RMK A01 T01230082  RH  076%=      5-min Rain = 0
KHA2 220453Z 13008KT 12/08 A3021 RMK A01 T01220081  RH  076%=      5-min Rain = 0
KHA2 220454Z 12008KT 12/08 A3021 RMK A01 T01220082  RH  076%=      5-min Rain = 0
KHA2 220455Z 13008KT 12/08 A3021 RMK A01 T01220082  RH  077%=      5-min Rain = 0
KHA2 220456Z 13008KT 12/08 A3021 RMK A01 T01210082  RH  077%=      5-min Rain = 0
KHA2 220457Z 13008KT 12/08 A3021 RMK A01 T01220083  RH  077%=      5-min Rain = 0
KHA2 220458Z 12008KT 12/08 A3021 RMK A01 T01220083  RH  077%=      5-min Rain = 0
KHA2 220459Z 13008KT 12/08 A3021 RMK A01 T01230084  RH  077%=      5-min Rain = 0

Page generated in 0.0894 seconds.